GFSNIL_sfc_wetblb_000.txt.gz
Wetbulb
45.91 44.94 44.98 42.88 43.99 43.12 42.31 41.77 43.11 42.76 43.10 43.59 43.65 43.80 43.88 43.67 44.30 44.93 46.37 45.85 46.40 45.67
43.96 42.40 41.58 42.27 42.87 42.72 42.54 41.82 41.89 42.03 41.83 42.10 42.28 42.48 42.75 42.30 43.00 44.06 45.55 46.22 46.31 46.08
42.00 41.57 41.78 41.72 41.16 41.58 41.68 41.41 41.06 40.74 40.90 40.84 40.90 41.24 41.28 41.08 42.22 41.76 43.77 44.30 43.88 44.45
41.26 40.77 41.05 40.78 40.89 40.70 40.68 40.32 39.68 39.55 39.38 39.09 39.11 39.70 39.56 39.75 40.12 39.82 40.61 42.19 43.18 43.40
40.72 40.24 39.96 40.04 40.07 40.42 39.28 39.57 39.11 38.60 37.99 37.73 37.74 38.03 37.69 37.46 38.20 38.06 38.34 39.35 39.95 40.80
39.23 39.71 39.52 39.76 39.75 39.52 38.89 38.34 37.95 37.24 36.48 36.36 36.34 36.40 36.78 36.83 36.79 37.13 37.56 38.30 38.56 39.13
39.13 38.90 39.31 39.13 38.66 38.31 37.78 36.40 36.03 36.10 35.76 35.63 35.55 35.45 35.63 35.72 35.37 35.22 34.98 35.59 36.25 36.65
39.26 39.24 38.61 37.96 37.72 37.05 36.02 35.41 35.54 34.74 34.77 34.96 34.79 34.57 34.92 34.23 32.92 32.18 31.69 33.17 33.33 34.54
38.20 38.05 37.33 36.92 36.01 35.24 34.73 34.60 34.61 33.91 33.71 33.83 33.66 32.39 31.51 30.19 29.75 29.41 29.85 30.80 32.30 33.41
37.13 35.95 35.71 35.07 34.23 33.44 33.21 33.68 33.08 33.23 33.44 32.78 33.05 31.52 30.11 29.50 29.70 30.11 30.48 31.09 32.03 32.45
35.67 34.69 34.41 33.45 32.74 32.65 32.69 32.11 32.09 32.33 32.32 31.59 31.31 29.96 29.44 28.88 29.91 30.39 30.84 31.05 31.72 31.96
34.60 33.50 32.63 31.76 31.24 31.60 31.26 31.37 31.42 31.39 30.74 29.48 29.97 29.40 28.78 28.75 30.11 29.90 30.15 31.04 31.75 31.96
34.01 32.41 31.38 31.07 30.51 31.27 31.42 30.65 30.66 29.32 29.44 28.96 29.52 28.95 28.67 29.03 29.90 29.36 29.74 31.04 32.26 31.20
32.79 31.61 30.88 30.41 31.11 30.73 30.27 29.45 29.16 29.02 29.98 30.26 30.35 30.76 30.04 30.33 30.61 30.61 30.52 30.81 32.31 34.15

GFSNIL_sfc_wetblb_003.txt.gz
Wetbulb
49.81 48.30 47.86 46.64 44.72 43.98 44.18 44.57 44.96 44.48 44.22 43.82 43.84 43.87 44.67 44.75 45.04 45.70 45.53 45.80 45.93 45.96
48.41 46.81 45.23 44.79 44.67 43.90 44.31 43.65 43.92 43.48 42.80 42.81 42.93 42.83 42.72 43.54 43.49 44.53 45.14 45.88 46.49 45.78
45.70 44.84 44.06 44.01 42.87 42.65 42.94 42.92 42.50 42.01 41.71 41.57 41.58 41.73 41.94 42.22 42.52 43.00 43.49 43.74 44.29 44.57
43.91 42.96 42.34 41.86 42.18 42.36 42.37 41.76 41.03 40.67 40.64 40.59 40.34 40.64 40.60 40.60 41.11 40.95 41.30 42.29 42.41 42.58
42.63 41.92 41.52 41.49 41.86 42.14 40.98 41.14 40.52 40.47 39.92 39.46 39.28 39.33 38.69 38.60 38.84 39.00 38.89 40.03 40.64 40.76
41.23 41.07 41.07 40.98 41.34 41.21 40.31 40.27 40.16 39.58 38.55 38.26 38.17 37.87 38.19 37.69 37.73 37.92 38.39 38.88 39.10 39.39
41.76 41.14 41.16 40.84 40.49 40.47 40.38 39.28 38.77 38.41 37.76 37.53 37.35 37.21 37.00 36.70 36.66 37.20 37.14 37.39 37.12 36.37
41.92 41.68 40.85 40.28 40.05 39.87 39.25 38.22 37.58 36.86 36.97 37.01 36.89 36.20 36.18 35.78 34.89 34.50 33.71 33.82 33.24 34.10
41.13 40.21 39.49 39.25 38.81 38.31 37.14 36.68 36.46 35.95 35.83 35.32 35.29 34.27 33.88 33.21 32.71 31.53 30.22 30.01 31.28 32.59
39.22 38.38 38.14 38.11 37.63 36.13 35.75 35.85 35.26 35.00 34.83 34.11 34.64 33.68 33.08 31.79 31.05 30.26 30.03 29.78 31.01 31.70
38.50 37.39 37.50 36.96 35.62 35.39 35.25 34.41 33.95 33.75 33.66 33.19 33.13 31.96 31.47 30.92 30.16 29.54 29.74 30.27 31.06 31.38
37.52 36.78 36.05 34.80 34.51 34.55 33.73 33.36 32.96 32.60 31.93 30.71 30.58 30.44 30.63 29.85 30.87 30.29 30.43 30.98 31.56 32.07
37.28 35.97 34.79 34.35 33.58 33.60 33.42 32.10 32.38 30.44 30.66 29.80 29.85 30.85 31.14 31.31 31.37 30.78 30.90 31.33 31.99 31.09
36.46 35.44 34.72 33.38 33.41 32.72 31.92 31.25 31.19 30.84 31.03 30.70 31.55 32.13 32.63 32.78 32.23 31.24 30.23 30.03 31.38 33.19

GFSNIL_sfc_wetblb_006.txt.gz
Wetbulb
49.93 48.13 47.71 47.29 45.99 43.65 43.00 43.24 44.02 43.04 43.00 42.86 42.76 41.96 41.42 40.74 40.35 40.15 40.00 39.67 40.46 40.81
48.94 47.85 46.05 46.36 44.21 43.26 43.50 43.11 43.24 42.64 42.09 41.94 41.52 41.01 40.28 39.24 39.06 39.71 39.52 39.49 39.79 39.88
46.41 45.69 44.38 43.82 42.97 42.47 42.06 42.02 41.81 41.33 41.01 40.38 39.86 39.66 38.87 37.68 38.25 38.30 38.45 38.96 38.53 38.77
44.37 44.04 42.90 42.23 41.67 41.33 41.55 41.10 40.82 40.27 39.33 39.11 38.59 38.35 37.34 36.96 37.39 36.77 36.66 37.34 37.16 37.11
42.88 42.37 41.21 41.10 41.36 41.75 40.63 40.92 40.27 39.60 39.07 38.49 37.95 37.45 36.51 35.79 36.26 35.71 35.04 35.47 35.59 35.68
41.13 40.84 40.47 40.72 41.16 40.59 40.35 39.57 39.27 38.94 37.76 37.31 36.76 36.21 35.87 35.70 35.26 34.78 34.76 34.71 34.29 34.59
40.08 40.91 41.08 40.92 40.48 40.07 39.60 38.77 37.94 37.53 36.89 36.22 35.65 35.74 35.53 35.14 34.12 33.75 34.02 34.31 34.14 33.96
42.35 41.96 41.05 40.48 39.64 39.12 38.50 37.88 37.02 35.78 34.98 34.94 35.12 35.45 33.76 33.31 31.97 31.26 31.16 31.77 32.02 31.62
41.78 41.34 39.61 39.02 37.97 37.64 36.77 35.48 34.69 33.75 33.63 33.02 34.61 34.59 34.72 33.39 30.33 30.06 29.67 29.16 29.99 30.08
40.49 39.07 37.94 37.92 36.89 35.40 33.36 33.55 32.32 32.28 32.41 31.66 31.98 34.33 33.89 32.59 29.46 28.54 28.37 28.00 28.28 28.96
39.04 37.47 36.95 36.24 34.78 32.79 32.25 31.47 31.16 31.01 31.18 30.32 31.23 32.18 31.95 31.26 28.83 28.60 28.58 28.52 28.58 28.38
37.17 35.95 35.55 33.70 31.67 31.70 30.88 30.59 30.24 29.97 29.45 28.86 28.70 31.33 31.12 30.44 29.11 29.49 29.12 29.70 29.68 29.71
36.73 35.34 33.72 32.07 30.55 30.56 30.28 29.11 29.25 28.94 29.46 30.26 28.15 30.65 31.59 31.43 30.57 29.79 29.61 30.46 31.21 31.72
35.82 34.07 33.04 31.70 31.04 30.05 28.94 28.69 28.06 26.63 28.05 28.25 29.11 29.24 31.92 32.10 29.77 29.47 28.32 28.38 28.20 29.17

GFSNIL_sfc_wetblb_009.txt.gz
Wetbulb
47.35 47.00 46.22 45.49 43.87 41.18 40.59 41.51 41.42 41.16 41.14 40.88 40.93 40.99 40.96 40.29 39.44 38.32 37.37 36.68 36.59 38.25
46.12 44.14 43.02 40.74 39.92 40.88 40.98 41.36 40.67 40.50 39.98 40.43 40.76 40.75 40.32 39.12 37.84 37.12 37.33 37.27 37.42 37.71
42.21 40.71 40.34 40.33 39.79 39.44 39.53 40.26 40.11 40.10 40.27 40.25 39.95 39.58 38.50 37.36 37.28 36.43 36.44 37.32 35.84 36.25
40.39 39.50 39.08 39.80 39.44 39.37 39.75 39.93 40.15 40.10 39.75 39.34 38.32 38.39 37.52 36.44 36.07 35.18 35.00 34.79 34.41 34.52
39.12 38.25 37.60 37.88 38.90 39.36 38.61 39.68 39.11 39.20 38.80 38.35 37.97 37.49 35.86 35.05 34.98 34.13 33.63 33.90 32.63 33.36
37.68 37.23 37.06 37.36 37.73 38.46 38.51 38.53 38.25 38.19 37.51 37.24 36.65 35.73 34.74 34.17 33.75 33.25 33.00 32.85 32.42 32.76
37.00 36.64 36.79 36.92 36.57 37.54 38.12 36.86 36.51 36.49 36.45 36.06 34.74 34.40 33.94 33.75 32.49 31.38 31.28 31.21 30.99 30.82
38.40 38.47 39.47 38.62 37.46 36.87 36.56 36.34 35.85 34.97 33.61 32.93 33.02 33.79 31.90 30.79 29.74 28.46 28.41 29.28 29.98 30.36
39.99 39.22 38.77 37.75 37.38 36.25 34.87 34.09 32.73 31.43 31.07 30.40 32.65 33.98 34.35 32.05 28.35 28.20 27.84 27.01 28.20 28.99
39.98 39.39 38.76 37.33 35.66 33.94 32.05 30.78 29.40 29.08 29.08 28.52 28.37 33.15 32.94 32.40 29.07 27.65 26.96 26.54 26.80 27.57
39.99 38.00 35.02 34.18 33.03 30.65 29.10 28.28 27.76 27.59 27.45 27.10 28.75 31.91 32.27 31.65 29.04 27.66 27.54 27.67 27.85 27.63
34.72 33.86 33.37 31.20 28.82 28.33 27.42 26.88 26.19 27.06 26.80 26.30 26.95 31.01 31.33 30.62 28.58 27.94 27.85 29.26 29.52 30.21
34.29 33.10 31.07 29.07 27.71 27.36 26.41 26.05 26.62 26.98 27.24 28.80 26.55 29.25 30.63 30.36 29.03 27.02 27.24 27.84 28.45 30.00
33.28 31.24 29.91 27.88 26.99 25.70 24.99 25.60 21.41 20.64 24.36 25.47 26.67 25.58 29.54 29.83 27.94 27.71 27.22 26.90 27.43 28.32

GFSNIL_sfc_wetblb_012.txt.gz
Wetbulb
45.72 45.26 45.27 44.73 43.82 41.95 41.97 40.43 40.49 40.10 40.30 40.94 41.48 41.35 41.74 40.69 40.11 39.60 38.08 37.05 36.69 36.84
43.62 44.03 43.16 40.42 39.87 40.52 40.08 40.69 40.06 40.64 41.24 42.07 42.07 41.53 40.59 38.99 38.44 38.70 37.97 36.91 36.52 36.11
40.95 40.70 39.16 38.33 37.59 38.20 39.44 40.68 41.04 41.87 42.42 42.11 41.01 39.95 39.16 38.18 37.59 36.43 36.08 36.22 34.83 35.28
38.11 38.16 37.59 37.45 37.54 37.90 39.81 41.08 41.20 40.97 40.45 39.91 39.26 39.24 37.79 36.36 36.05 35.00 34.44 34.31 34.10 33.91
37.36 37.05 36.15 36.42 37.00 38.18 38.75 39.01 39.82 39.35 38.79 38.67 38.20 36.96 35.74 34.37 34.54 32.79 31.97 32.24 32.44 32.57
36.00 35.41 34.99 36.13 37.02 37.73 37.77 38.35 37.60 37.73 36.54 36.55 36.23 35.22 34.33 33.50 32.66 32.05 32.18 31.89 31.30 31.46
35.06 34.69 35.79 36.25 36.26 36.44 36.52 35.93 35.32 35.61 35.44 35.49 34.58 33.39 32.89 32.49 30.74 29.56 29.63 29.44 29.24 29.61
37.98 36.98 36.96 35.89 35.66 36.45 37.27 36.33 34.94 33.87 32.19 31.47 31.48 32.14 30.60 30.06 28.66 27.74 27.60 28.35 28.52 28.79
40.18 39.82 39.12 38.97 38.06 36.89 36.06 34.36 32.42 30.71 29.96 29.25 31.05 32.69 33.37 31.75 27.92 27.96 27.36 26.55 27.25 27.61
40.39 39.28 38.22 38.52 37.09 34.69 31.61 29.88 28.64 28.06 27.80 27.31 27.74 31.75 32.56 32.46 28.67 27.60 27.24 27.04 26.97 27.06
38.31 37.99 36.44 33.77 31.28 29.09 28.34 27.51 26.80 26.76 27.22 26.42 27.48 31.09 31.68 31.63 28.32 27.31 27.35 27.66 27.63 27.81
33.19 32.40 30.82 28.93 27.85 27.52 26.64 25.89 25.30 26.36 25.71 25.95 26.14 29.92 30.49 29.73 26.17 26.47 27.40 28.26 28.15 28.20
33.13 31.01 28.51 27.47 26.84 26.40 24.81 24.97 25.91 26.21 25.83 26.67 24.90 28.39 29.17 28.32 27.03 25.40 25.43 26.33 27.28 28.95
31.27 30.05 28.48 26.53 25.47 24.26 24.06 24.41 19.43 18.78 22.10 24.06 25.23 24.04 28.40 29.13 27.47 26.44 26.01 26.15 26.83 27.41

GFSNIL_sfc_wetblb_015.txt.gz
Wetbulb
44.67 43.62 43.74 43.66 42.98 41.91 39.01 37.50 38.48 39.64 41.26 41.61 41.86 41.55 41.30 40.81 40.40 41.06 40.42 39.00 38.45 37.12
41.88 41.52 41.99 39.93 38.65 37.49 38.20 39.26 39.09 40.55 41.47 41.88 41.84 42.58 41.90 40.16 39.19 39.08 38.66 37.51 36.25 34.89
41.32 40.13 39.25 37.03 36.64 37.15 38.13 39.29 40.34 41.18 41.83 42.12 41.84 41.02 40.48 38.53 37.83 37.21 36.32 36.08 34.51 34.21
39.38 37.63 36.47 35.89 36.32 37.19 38.82 39.69 40.52 40.04 40.62 40.60 39.58 38.96 37.85 37.20 36.36 35.18 34.52 34.18 33.82 33.28
37.23 35.95 35.14 35.48 36.35 37.56 39.00 40.01 39.44 38.62 38.55 38.72 38.35 37.53 35.54 34.10 33.91 32.60 31.91 31.74 31.42 31.50
35.21 34.31 33.74 34.69 36.74 37.77 37.95 37.83 37.45 36.57 36.04 35.86 35.49 34.55 33.55 32.69 32.14 31.53 31.13 30.66 30.36 30.44
34.19 34.97 34.42 36.14 35.80 36.07 36.97 36.25 35.38 35.81 35.46 34.65 32.46 31.91 31.58 30.89 29.65 28.65 29.03 29.05 28.73 28.21
38.14 37.74 38.07 38.63 38.41 38.20 38.56 38.14 34.93 32.92 30.96 30.43 30.29 30.75 29.67 29.53 28.68 28.10 27.54 27.90 27.92 27.98
40.67 40.58 39.54 39.18 36.99 37.49 36.97 34.49 31.91 30.41 29.84 28.60 30.06 32.07 32.74 31.52 27.95 27.96 27.37 26.17 27.09 27.51
40.54 38.99 37.77 37.59 37.53 34.90 30.91 29.36 28.53 27.99 27.67 27.25 27.39 30.74 31.70 32.03 28.51 27.12 26.78 26.44 26.59 27.08
37.28 37.38 34.90 31.57 29.79 28.49 28.08 27.15 26.45 26.56 26.74 26.35 27.21 30.06 30.32 30.23 27.81 26.07 26.47 26.86 27.11 27.25
33.05 32.02 29.88 27.35 26.30 25.77 25.16 25.66 25.30 26.35 26.24 25.43 25.08 28.48 28.76 28.18 23.92 24.28 24.82 26.93 27.13 26.91
30.88 29.57 27.70 26.54 25.56 25.92 24.91 25.38 26.20 25.81 25.08 25.49 23.38 26.56 28.48 28.01 24.79 24.39 25.19 25.74 27.32 28.56
30.66 28.97 26.84 26.06 25.65 24.81 24.20 24.00 19.60 18.42 20.78 22.59 24.00 22.53 27.79 28.61 27.02 25.43 25.47 25.36 26.21 27.94

GFSNIL_sfc_wetblb_018.txt.gz
Wetbulb
42.05 41.87 42.07 41.69 41.66 40.44 38.29 36.57 38.35 39.47 39.88 39.81 40.02 39.89 40.86 41.67 41.43 41.75 41.11 39.63 38.10 36.54
40.09 40.26 40.74 39.90 37.97 37.17 37.02 38.95 38.80 39.27 39.22 39.52 41.20 41.99 41.51 40.48 39.47 39.45 38.77 38.19 38.27 38.03
39.52 39.16 38.27 37.29 36.63 36.22 37.20 38.77 38.67 38.90 38.99 39.28 40.02 41.10 40.25 39.55 39.44 38.13 38.06 37.88 36.29 35.34
38.99 38.69 36.41 35.62 36.02 36.21 38.16 38.68 39.00 39.57 39.15 39.13 38.90 38.82 38.19 37.85 37.37 36.10 35.22 34.79 33.70 33.06
37.10 35.89 34.30 34.52 35.61 37.27 38.03 38.92 37.76 39.04 38.32 37.69 36.84 36.25 34.85 33.72 33.56 32.55 31.64 31.49 30.87 30.90
36.24 34.13 32.73 34.25 36.04 36.92 36.74 37.39 38.06 37.30 36.41 36.06 35.78 34.16 32.87 32.27 31.31 30.77 30.42 29.93 29.41 29.68
34.81 35.08 36.21 36.60 37.81 38.05 38.59 38.10 38.08 37.34 35.23 33.35 31.50 31.23 30.94 30.34 29.41 28.77 28.78 29.16 28.62 27.95
36.74 39.60 39.60 39.23 38.31 38.32 38.15 37.02 34.42 32.23 31.02 30.17 30.05 30.35 29.42 29.19 28.39 27.39 27.19 28.28 28.19 27.81
40.72 39.91 37.36 37.35 37.46 36.53 36.78 36.76 31.55 29.48 28.48 27.65 29.50 31.62 32.04 31.64 28.45 28.54 28.43 27.05 26.98 27.13
39.42 38.21 38.45 38.47 36.96 34.87 29.71 28.34 27.37 27.27 27.58 27.34 27.50 30.23 30.76 30.67 28.05 27.75 27.37 26.34 26.24 26.79
36.01 35.91 33.44 30.19 28.53 27.44 26.84 26.03 25.75 26.26 26.50 26.48 26.60 29.18 29.23 29.26 26.80 25.75 25.88 26.18 26.28 26.00
30.78 29.74 28.88 27.55 26.82 26.28 25.58 25.40 25.31 26.57 26.14 25.25 24.73 27.75 28.48 28.22 24.36 23.92 24.24 26.18 26.78 27.11
29.38 28.67 26.59 25.30 25.00 25.40 24.68 25.47 26.49 25.64 24.86 24.87 23.12 25.95 28.04 27.68 24.30 22.51 25.35 26.23 27.01 28.01
28.91 26.89 25.53 24.67 24.63 23.91 23.64 24.13 19.79 17.58 20.21 22.28 23.57 21.93 27.37 27.79 26.14 25.67 25.42 25.91 25.84 27.13

GFSNIL_sfc_wetblb_021.txt.gz
Wetbulb
47.83 47.33 47.24 46.91 46.75 45.79 45.01 44.99 44.79 44.94 45.30 45.20 45.37 45.47 45.16 42.68 42.27 40.27 38.68 37.49 36.72 35.44
47.06 46.26 45.67 45.92 45.32 44.39 44.23 43.83 44.49 44.95 44.86 44.93 44.85 43.50 42.41 40.67 39.29 39.83 39.60 39.02 38.57 38.39
45.64 45.58 45.17 43.91 42.70 42.50 43.16 44.25 44.29 44.40 43.90 42.92 43.53 42.97 42.21 41.79 41.16 39.99 39.82 39.60 39.26 39.16
44.85 44.33 42.48 41.05 41.42 41.85 42.94 43.88 42.97 42.07 41.47 40.64 40.24 40.87 41.38 40.95 40.83 39.91 39.13 39.12 38.31 37.73
43.66 41.84 40.07 40.11 40.95 42.12 41.45 41.77 41.77 41.28 39.73 39.03 38.76 39.87 38.90 37.11 37.08 36.27 35.39 36.07 36.14 35.57
41.48 39.61 39.61 40.73 40.60 41.54 40.79 39.94 39.73 38.96 38.58 39.12 38.27 36.36 35.74 35.30 34.97 34.98 34.92 34.76 34.06 33.79
40.27 40.74 40.51 39.90 39.74 39.99 40.27 39.64 39.94 39.31 37.13 36.03 35.22 34.74 34.58 34.45 34.37 33.93 33.57 33.69 33.13 32.60
41.06 41.79 40.97 40.56 40.97 40.72 40.53 39.99 39.81 36.61 34.15 33.48 32.96 32.84 32.90 33.17 32.91 32.35 32.11 32.64 32.54 32.60
40.95 41.28 40.75 40.16 40.88 40.74 40.58 39.32 35.28 33.44 32.47 32.42 31.99 31.03 31.34 31.47 31.71 31.14 29.94 29.49 30.43 30.97
38.84 38.95 39.25 37.67 35.47 33.99 33.87 33.71 32.66 32.15 31.89 31.35 31.25 29.79 30.04 29.76 30.14 29.79 29.64 29.68 29.51 29.36
36.06 35.21 34.66 34.17 33.52 33.15 32.58 31.58 31.28 31.06 30.99 30.41 29.94 28.77 28.76 28.93 30.26 29.78 29.38 29.51 29.60 29.20
34.04 33.49 33.12 32.13 31.33 31.78 31.34 30.96 30.58 30.47 29.66 28.90 28.82 28.06 28.00 28.73 29.32 28.53 28.38 29.18 28.78 28.73
33.12 32.28 31.38 30.72 30.49 30.74 30.64 29.50 29.57 28.36 28.77 27.90 27.81 27.28 27.66 28.30 28.66 27.38 27.45 28.90 29.59 29.30
32.63 31.50 31.22 30.29 30.30 29.72 29.45 28.51 27.52 26.98 27.60 27.45 27.31 27.31 27.09 27.11 27.91 26.95 27.18 27.39 28.03 29.77

GFSNIL_sfc_wetblb_024.txt.gz
Wetbulb
52.02 51.49 50.77 49.98 49.22 48.39 48.15 48.58 49.65 49.47 49.11 48.27 47.76 46.83 45.96 46.34 42.65 40.49 39.52 38.35 38.12 38.04
51.43 50.66 49.50 49.40 48.66 47.56 48.02 47.93 48.34 47.87 47.30 46.88 45.81 45.50 45.85 43.78 43.30 42.77 42.47 42.12 41.53 41.22
50.42 50.42 49.28 48.08 46.43 46.46 47.29 47.43 46.07 45.38 44.21 42.84 42.31 41.99 42.91 42.62 42.54 41.72 41.90 41.60 40.51 40.16
49.71 48.68 47.40 46.07 45.91 46.33 45.84 43.82 42.20 42.05 41.06 40.11 39.99 40.50 40.76 40.60 40.62 39.89 39.73 40.16 39.19 39.35
48.35 47.16 45.74 44.96 45.09 45.52 43.44 43.21 41.40 40.30 40.23 40.98 40.73 41.20 40.78 40.00 39.56 38.50 38.36 38.65 38.53 37.72
46.52 45.28 44.70 44.15 43.18 42.30 42.33 42.60 42.48 42.51 41.78 40.94 40.50 39.79 39.51 38.81 38.45 38.44 37.93 37.62 37.07 36.92
44.15 42.86 42.72 43.09 42.32 43.02 43.46 42.64 42.41 42.10 40.96 41.09 39.08 38.28 37.86 37.13 36.92 36.75 36.67 36.63 36.40 36.25
44.76 42.52 41.87 40.50 40.88 42.19 42.73 42.18 41.48 40.40 39.47 38.69 37.88 36.90 34.84 34.93 35.15 35.03 34.80 35.16 34.89 35.08
42.40 42.15 42.06 42.23 40.89 40.66 39.61 39.25 38.91 38.16 37.51 36.99 36.43 31.36 30.79 31.15 32.99 33.56 33.56 33.23 33.74 34.04
40.72 40.00 39.68 39.40 38.80 38.40 38.08 37.87 37.16 36.89 36.45 35.81 35.71 30.27 29.96 29.54 31.85 32.40 33.32 33.43 33.02 32.76
39.38 38.46 38.50 38.13 37.51 37.35 37.02 36.39 35.95 35.68 35.31 34.65 34.29 30.25 29.20 28.58 31.50 32.69 32.74 32.80 32.66 31.90
38.88 37.65 37.17 36.71 35.90 36.19 35.63 35.23 34.77 34.30 33.61 32.78 32.56 30.31 28.47 28.81 30.35 30.53 30.18 30.12 30.55 31.15
38.14 37.27 36.30 35.54 35.14 35.29 35.08 33.89 33.55 32.16 32.35 31.11 31.01 29.09 28.09 28.31 29.27 28.02 28.49 29.08 30.23 30.24
37.78 36.69 35.66 35.34 35.18 34.34 33.78 32.65 31.59 31.11 30.05 30.01 29.83 29.40 28.06 27.41 27.64 27.69 27.07 27.77 29.00 31.10

GFSNIL_sfc_wetblb_027.txt.gz
Wetbulb
53.94 52.73 52.26 51.88 50.79 49.41 48.27 48.10 49.39 49.64 49.01 48.06 46.03 45.65 45.81 44.86 44.20 43.35 41.14 39.90 40.24 40.77
53.15 52.04 51.44 51.19 50.19 48.43 48.12 47.85 48.90 46.23 43.57 42.72 43.14 43.38 42.49 42.78 42.86 43.20 43.11 42.50 41.78 41.04
51.30 51.28 50.66 49.73 47.79 47.30 47.71 46.98 45.40 43.09 42.72 42.52 41.55 41.78 42.34 41.49 41.68 40.67 41.28 41.73 41.38 41.26
49.43 49.61 49.15 47.51 47.11 46.75 45.62 44.35 44.36 44.14 42.74 41.55 42.32 42.37 42.30 42.09 41.59 40.42 39.88 40.21 39.86 39.64
48.15 48.03 47.36 46.40 44.26 45.26 44.77 45.02 44.19 43.51 43.18 42.73 42.68 41.85 41.07 40.52 39.65 39.10 38.53 39.24 39.05 38.20
46.50 46.19 45.07 44.64 44.75 44.67 44.17 43.66 43.42 42.81 42.16 41.72 41.43 40.45 40.29 39.46 38.96 38.41 38.04 37.87 37.41 37.19
45.15 45.19 44.37 44.32 40.97 42.92 42.93 42.24 42.50 42.43 41.29 40.83 40.12 39.49 39.17 38.67 37.28 36.75 36.77 36.97 36.76 36.56
43.31 43.62 44.04 43.35 42.75 42.98 42.56 41.02 40.96 40.23 39.87 39.54 38.84 37.79 36.53 35.88 34.74 34.07 34.40 35.38 35.89 36.47
41.82 41.45 41.31 41.56 40.78 40.52 39.94 39.89 39.71 38.68 38.42 37.90 37.48 31.17 30.94 31.33 32.58 32.27 32.63 33.11 34.52 35.77
41.32 40.81 40.72 40.55 39.94 39.32 38.60 38.69 37.92 37.69 37.54 36.79 36.70 30.95 30.55 30.15 31.52 30.96 32.03 33.02 33.47 33.51
40.33 39.80 39.53 38.85 38.09 38.40 37.79 37.20 36.81 36.38 36.20 35.60 35.41 31.41 29.96 29.47 30.63 31.31 31.67 32.40 32.29 32.18
39.82 38.69 38.34 37.86 37.36 37.16 36.79 36.12 35.74 35.55 34.59 33.03 33.15 32.26 29.70 29.17 29.68 29.34 29.34 30.23 31.11 31.08
39.37 38.32 37.87 37.45 36.53 36.63 36.31 35.16 34.96 33.46 32.48 31.19 30.81 31.52 30.01 29.21 29.39 27.88 28.22 29.37 29.81 29.98
39.27 38.30 38.00 36.81 36.78 36.06 35.43 34.50 33.57 32.55 32.10 31.62 31.97 31.78 30.23 29.04 28.99 28.09 28.29 27.74 28.16 30.20

GFSNIL_sfc_wetblb_033.txt.gz
Wetbulb
46.99 46.39 46.03 45.72 44.55 43.28 42.24 42.15 42.46 42.17 41.40 41.06 40.90 40.78 40.20 39.59 40.30 38.86 38.81 37.55 40.54 39.92
43.97 44.00 43.68 43.65 42.66 41.82 42.10 43.70 41.72 41.10 40.59 40.13 39.81 39.52 39.08 38.29 37.77 37.57 37.31 37.39 37.61 37.34
42.65 42.97 42.71 41.83 41.21 41.22 41.14 41.53 41.32 40.59 39.77 38.97 38.98 40.27 38.53 37.55 37.85 37.18 37.01 37.15 36.12 35.87
41.78 42.32 42.12 42.36 41.61 41.43 41.09 40.07 39.94 41.17 41.78 41.50 41.88 41.44 39.03 38.33 37.77 37.51 36.46 36.00 35.19 34.74
41.29 41.54 41.42 41.16 40.68 40.79 40.24 40.94 41.05 42.11 41.56 41.12 40.21 40.35 39.04 36.82 35.67 33.96 31.48 31.44 30.97 31.98
40.23 39.56 39.70 39.90 40.23 40.25 39.82 39.77 39.56 40.20 39.93 39.14 38.12 36.17 34.47 33.64 32.71 31.61 30.85 30.96 30.58 30.04
39.29 38.83 38.90 39.30 39.36 39.27 39.63 39.23 38.74 37.15 37.30 36.09 34.99 33.33 32.55 31.91 30.11 29.25 29.60 29.87 29.27 29.30
38.97 38.68 38.47 37.76 37.74 37.93 37.65 36.77 36.47 35.24 34.47 34.03 32.64 31.73 29.14 28.55 27.55 27.14 27.26 27.99 28.84 29.15
39.06 38.22 37.90 37.21 36.76 36.55 35.95 36.09 34.30 33.53 32.94 30.95 32.12 32.32 31.49 29.44 26.28 26.84 26.62 25.72 26.97 27.49
39.42 39.56 37.78 37.77 37.32 35.02 33.27 32.16 32.29 31.63 30.85 29.61 29.06 32.43 31.70 31.25 26.98 25.66 24.80 24.60 25.45 25.52
38.46 38.20 38.53 37.92 36.05 33.89 31.48 30.38 31.13 29.82 29.63 28.26 30.35 32.55 32.71 32.26 26.43 25.12 25.20 25.25 25.07 24.84
38.97 38.48 37.98 36.39 33.66 32.19 31.37 29.54 29.58 30.13 28.68 27.64 27.43 31.59 32.45 31.07 25.77 25.79 25.39 26.61 25.87 25.69
38.66 38.47 36.20 36.12 33.55 31.74 30.64 30.23 29.53 28.81 29.08 30.31 27.27 30.63 31.90 28.81 21.23 21.22 24.95 24.62 25.16 26.89
37.45 37.14 37.33 33.90 31.52 31.47 28.38 28.33 27.49 25.82 27.31 27.78 28.31 26.76 30.00 29.05 25.73 23.98 23.77 22.85 23.05 24.38

GFSNIL_sfc_wetblb_036.txt.gz
Wetbulb
43.53 43.22 43.32 42.82 42.22 41.49 41.70 41.80 41.78 40.86 40.38 40.05 39.96 39.75 38.85 37.34 37.50 37.35 35.60 35.00 36.05 37.44
41.94 41.72 41.82 41.31 41.09 40.55 40.76 42.44 41.10 40.15 39.83 39.41 39.04 39.03 38.02 36.83 36.42 36.23 35.84 35.57 35.43 35.07
41.27 42.10 41.33 40.62 39.97 39.48 39.64 39.91 39.59 39.13 38.93 38.28 40.64 40.70 38.65 37.27 37.68 36.60 36.70 37.58 36.53 34.84
40.22 41.07 40.82 40.20 39.73 39.83 39.30 39.22 39.13 39.91 39.93 39.58 38.56 38.71 37.91 37.38 37.03 35.69 33.41 31.23 30.85 31.08
39.60 40.49 39.94 39.81 39.73 39.46 38.55 39.18 39.03 39.22 38.88 38.32 37.80 37.31 35.19 33.15 32.29 30.95 29.63 29.52 29.97 30.22
38.31 39.01 38.81 38.96 39.24 38.99 38.78 38.54 38.02 38.41 37.28 36.00 34.92 32.58 31.83 30.84 29.94 28.91 28.82 28.74 28.93 28.41
37.45 38.11 37.35 38.09 38.37 38.14 38.76 37.85 36.86 35.98 35.28 33.91 31.76 31.22 30.17 29.64 27.66 27.16 27.82 28.12 27.63 27.09
37.52 37.73 38.45 37.45 37.04 39.24 38.27 37.38 36.39 33.75 32.93 31.99 30.89 30.65 28.25 28.02 26.97 26.37 26.25 26.82 26.72 27.18
38.24 38.50 37.06 37.90 37.12 37.80 36.96 36.86 33.55 32.02 31.69 30.52 31.29 32.24 31.54 29.71 26.35 26.59 26.01 24.50 25.26 25.96
38.14 37.56 36.83 36.69 36.87 37.45 35.91 33.42 31.62 31.20 30.32 28.40 28.34 32.35 32.80 32.80 28.61 26.02 24.81 24.29 24.60 25.54
36.90 36.24 36.38 36.44 35.62 34.02 33.28 31.60 30.61 29.10 28.62 27.46 29.03 31.93 32.30 32.37 27.55 25.67 25.65 25.69 25.39 24.63
37.21 36.70 36.40 36.53 35.55 35.34 33.90 29.81 29.10 29.32 27.62 26.73 27.12 31.18 31.35 27.64 24.04 24.73 24.09 25.78 25.44 24.62
37.25 36.64 35.64 34.48 33.96 33.32 29.57 29.89 28.92 28.68 27.92 29.46 25.83 29.02 29.63 27.67 22.27 16.02 22.78 23.38 23.72 25.05
36.80 35.55 37.08 34.53 31.10 28.80 28.87 27.91 26.84 24.36 25.90 26.31 25.70 24.46 27.60 26.80 20.20 20.81 22.32 21.55 21.20 22.71

GFSNIL_sfc_wetblb_039.txt.gz
Wetbulb
42.11 41.40 41.40 41.51 40.84 40.54 40.80 40.77 41.09 40.34 39.63 39.16 39.16 38.37 38.37 36.37 36.15 36.04 35.25 34.31 35.08 35.62
40.66 40.93 41.02 40.84 39.96 39.63 39.98 41.50 40.39 39.40 38.85 38.82 38.51 38.30 38.09 35.90 35.41 35.27 35.17 34.72 35.83 36.42
40.05 41.21 40.78 39.66 38.95 38.80 38.99 39.28 38.88 38.23 37.87 37.79 37.64 37.94 37.23 35.59 35.51 34.84 34.27 34.81 33.33 31.96
39.06 40.26 39.97 39.29 38.96 38.97 38.76 38.25 37.68 38.39 38.51 38.13 36.75 36.37 35.47 34.44 32.66 30.83 29.55 28.90 28.86 29.34
38.51 38.65 38.89 38.81 38.95 38.92 37.77 37.65 37.86 37.76 37.67 37.23 35.76 34.21 32.12 30.79 29.99 28.75 27.63 27.65 27.80 28.47
37.08 36.70 37.73 38.03 38.41 38.42 37.55 38.33 37.56 38.43 37.89 35.73 34.86 32.46 30.33 29.59 28.10 27.47 27.73 27.47 26.93 26.38
36.34 36.05 36.41 36.94 37.07 37.36 37.40 37.78 37.31 36.84 36.13 34.99 32.18 30.82 29.91 29.02 27.59 27.07 27.17 27.51 26.98 26.01
36.42 36.28 36.56 36.48 36.60 36.75 37.56 36.51 36.17 37.50 34.75 32.70 31.20 30.34 28.48 28.06 27.02 26.39 26.09 26.81 26.72 26.36
36.81 36.67 36.11 35.60 35.77 35.12 35.03 35.86 37.32 33.64 32.89 31.82 31.25 32.59 32.40 31.01 26.81 27.43 26.69 25.14 25.70 25.94
36.45 35.78 35.33 35.50 35.57 33.85 34.05 33.97 33.11 31.79 31.60 29.09 28.02 32.39 32.58 32.58 29.16 27.25 25.64 24.84 25.06 25.38
35.86 35.67 35.60 34.97 33.85 31.42 31.65 30.71 30.58 28.72 28.36 27.38 28.44 31.31 31.38 29.62 25.20 24.25 24.47 24.56 24.58 24.12
35.12 35.31 35.10 35.32 36.16 35.37 34.52 32.50 28.26 28.49 27.83 27.14 26.52 29.99 29.79 26.86 23.21 23.39 22.52 23.93 24.07 23.47
35.62 35.10 33.79 34.82 35.07 32.40 27.87 28.67 28.72 28.32 27.76 28.85 24.49 27.60 28.00 26.34 20.04 13.61 21.45 22.20 22.79 24.03
34.68 33.64 33.90 32.84 28.53 27.89 27.90 28.65 26.71 24.66 25.36 25.99 25.29 23.37 26.80 26.23 18.94 19.43 21.18 21.41 21.41 22.74

GFSNIL_sfc_wetblb_042.txt.gz
Wetbulb
41.25 40.42 40.42 40.62 40.86 40.20 39.79 39.96 40.08 39.74 39.11 38.48 38.19 37.57 36.77 35.94 35.54 35.30 34.87 34.09 34.24 34.33
40.28 40.21 40.26 40.23 39.61 38.89 39.18 40.67 39.90 38.93 37.99 37.84 37.76 37.60 36.78 35.72 35.09 34.61 34.33 33.91 33.64 33.72
39.23 39.50 39.83 39.17 38.85 38.53 38.56 38.44 38.04 37.55 36.99 37.12 37.66 37.17 36.70 35.89 34.79 33.67 33.57 32.42 29.48 29.19
38.01 37.97 39.33 38.70 38.44 38.17 37.84 37.61 37.11 37.35 37.50 37.37 37.02 36.28 35.72 34.41 32.93 30.65 29.82 28.76 28.53 28.84
37.07 36.83 36.51 37.28 38.01 38.06 37.78 37.64 36.81 37.56 37.00 37.02 36.40 35.28 33.30 31.81 30.46 28.97 28.47 28.17 27.58 27.37
36.12 35.21 34.71 35.33 36.29 37.10 37.10 36.74 36.34 36.51 35.88 36.05 35.81 32.24 31.68 30.46 28.67 28.30 27.78 27.29 26.96 26.57
34.93 34.75 34.59 35.00 35.40 35.73 36.47 35.95 35.68 35.21 35.37 36.67 33.65 31.14 30.64 29.71 28.19 27.04 27.01 27.51 27.18 26.54
34.82 34.66 35.03 35.17 35.13 35.22 35.16 34.83 34.97 35.26 36.28 33.56 31.64 31.02 29.55 28.22 27.21 26.79 26.48 27.13 27.38 27.48
35.60 35.23 34.85 34.41 34.12 34.07 33.98 34.22 36.12 34.95 33.12 30.48 31.92 32.87 32.69 32.09 28.77 28.41 27.55 26.24 26.61 26.29
35.32 34.72 34.47 34.57 34.10 33.09 31.82 32.33 30.96 29.92 29.77 28.23 27.80 32.14 32.08 31.33 27.08 25.33 24.63 23.77 23.70 24.04
33.85 33.45 34.00 33.73 33.61 32.90 33.70 33.89 32.44 28.74 27.07 26.57 28.24 30.92 30.48 28.93 24.39 23.31 23.52 23.25 22.97 22.95
32.86 33.51 33.43 32.88 32.58 32.80 34.20 33.25 29.96 27.57 26.75 26.90 25.95 29.06 28.96 26.90 23.66 22.61 22.09 23.24 23.54 23.47
33.81 33.19 32.05 31.82 32.86 31.05 27.83 27.84 27.77 28.09 27.74 28.64 24.32 27.10 27.73 26.46 20.44 13.53 21.34 22.57 23.33 24.20
34.56 32.81 32.07 30.94 29.84 28.23 27.38 28.76 27.15 24.95 25.84 26.16 25.32 23.26 26.62 26.73 20.27 20.36 21.90 21.61 21.87 23.19

GFSNIL_sfc_wetblb_045.txt.gz
Wetbulb
47.44 48.18 47.97 47.57 47.54 47.33 47.35 47.86 48.47 47.62 46.68 45.55 45.22 44.82 44.48 43.99 43.99 43.64 43.38 42.53 42.14 41.43
47.59 46.94 46.93 47.22 47.39 47.10 47.41 46.46 46.58 46.26 45.53 45.59 45.33 45.09 44.76 44.18 43.45 43.07 42.60 41.66 41.09 40.37
45.43 45.34 45.71 46.24 45.84 45.91 45.93 45.53 45.16 45.04 44.76 44.44 44.10 44.22 44.04 43.38 42.54 41.28 41.18 39.60 37.18 36.83
44.22 44.16 44.41 44.03 44.28 44.40 44.36 44.78 44.45 44.45 43.62 42.92 43.02 43.42 42.02 40.70 39.81 37.27 36.72 36.70 35.38 35.13
43.25 43.28 42.86 42.64 43.02 43.61 43.39 44.31 44.20 43.80 42.24 42.14 41.92 41.50 39.16 38.08 37.00 35.49 34.17 34.42 34.37 33.86
42.31 42.02 41.72 41.69 42.14 42.32 41.97 42.06 42.34 41.65 41.27 40.69 39.74 37.48 36.44 35.77 34.42 34.08 33.58 33.53 32.85 32.59
41.29 41.04 41.10 41.25 41.22 41.02 41.22 40.92 40.82 40.38 40.05 39.68 37.27 35.33 34.30 34.47 33.94 33.18 32.98 33.16 32.85 32.46
41.22 41.09 40.72 40.64 40.61 40.62 40.30 40.13 39.93 39.11 37.33 35.78 35.46 35.04 34.83 33.80 33.43 33.18 32.72 32.65 31.89 31.63
40.81 40.11 39.92 39.94 39.76 39.67 39.16 38.48 37.82 36.73 35.73 35.71 35.57 32.87 32.98 33.09 33.22 31.90 30.16 28.72 28.95 28.99
39.52 38.58 38.66 38.90 38.87 38.63 38.45 37.76 36.80 35.99 35.50 34.37 33.98 32.11 32.09 29.87 31.22 29.37 28.49 27.55 27.05 26.89
37.65 37.07 38.04 38.02 37.90 38.10 38.37 38.11 36.90 36.62 33.98 32.94 32.38 30.52 30.18 28.32 29.77 28.73 27.72 27.26 26.98 26.39
36.64 37.00 36.95 36.33 36.45 37.03 36.01 35.36 34.72 33.87 32.37 31.59 31.20 28.68 28.68 28.28 28.97 27.50 26.78 26.91 27.09 26.46
37.12 36.88 35.75 35.86 35.37 35.89 34.59 33.12 33.38 31.54 31.69 30.07 30.17 27.26 27.80 28.27 28.60 26.62 26.47 26.92 26.62 25.24
36.87 36.24 36.37 35.33 34.99 34.54 33.01 32.75 32.25 31.15 30.75 30.35 29.52 28.82 26.93 27.15 28.37 26.94 25.72 25.19 24.90 25.50

GFSNIL_sfc_wetblb_048.txt.gz
Wetbulb
50.90 52.51 51.11 50.23 49.93 49.39 49.15 49.20 50.09 50.22 50.13 49.78 49.18 48.62 47.81 46.77 46.02 45.89 45.20 44.06 43.04 42.11
50.21 49.90 49.64 49.96 50.15 49.97 50.10 49.11 49.20 49.39 48.98 49.07 48.42 47.89 47.28 46.00 45.18 45.11 44.77 43.25 43.28 41.68
49.37 49.40 49.38 49.38 48.49 47.98 48.06 47.89 47.62 47.61 47.36 47.12 47.16 46.82 46.21 44.98 44.64 43.72 43.52 42.49 40.98 40.36
48.64 47.19 47.08 46.53 45.89 45.63 45.70 45.17 44.64 44.71 45.22 45.42 45.37 45.49 44.93 44.33 43.09 41.09 41.29 40.84 39.54 38.55
45.99 45.69 45.13 44.65 44.89 45.20 44.25 44.60 44.04 44.39 44.35 44.29 44.39 44.40 42.63 41.42 40.67 39.02 38.74 38.78 38.22 37.49
44.66 44.24 43.99 44.08 44.29 44.14 43.86 43.71 43.77 43.88 43.22 43.07 42.81 41.96 40.99 39.42 38.37 37.81 38.13 37.98 37.23 36.87
43.70 43.92 43.89 43.67 43.55 43.40 43.53 43.05 43.07 43.11 42.03 40.23 39.32 38.57 37.34 37.94 37.90 37.90 37.48 37.57 37.17 36.25
43.75 43.93 43.48 43.04 42.99 43.11 43.07 42.61 42.33 40.99 40.15 39.95 39.22 38.69 37.96 38.06 37.60 37.31 36.80 36.64 35.35 34.86
42.35 42.61 42.80 42.28 42.11 42.33 42.21 42.04 41.52 40.56 39.89 39.13 38.78 32.55 32.85 33.03 36.93 36.19 34.85 33.40 33.62 33.53
40.63 40.92 41.55 41.40 41.58 41.26 41.11 40.51 39.38 38.84 39.02 38.01 38.37 32.51 32.08 30.12 34.91 34.36 33.57 32.71 32.15 31.33
39.66 39.62 40.57 40.94 40.73 40.51 39.51 38.91 36.99 36.82 37.80 38.05 36.51 31.29 30.56 29.19 34.13 33.73 33.02 32.36 31.56 31.01
39.24 39.32 40.11 39.69 39.94 39.89 37.25 37.93 37.34 36.20 36.92 36.20 35.54 29.81 29.73 29.17 33.22 32.31 31.34 31.70 31.69 30.22
39.28 39.42 38.86 39.13 39.11 38.72 37.53 36.48 37.43 36.56 36.70 33.21 34.78 29.17 28.60 29.23 32.33 29.96 30.06 31.01 30.91 28.91
38.70 37.81 37.17 35.81 37.40 37.65 36.65 34.73 34.58 33.97 34.74 34.71 34.13 33.21 28.10 28.08 30.54 29.47 28.41 28.79 29.24 29.52

GFSNIL_sfc_wetblb_051.txt.gz
Wetbulb
52.29 53.06 52.25 51.58 50.88 50.30 49.94 50.12 50.86 50.02 49.51 49.19 49.25 49.81 48.53 47.77 47.31 46.46 46.18 44.61 44.21 43.03
51.99 50.89 50.37 50.90 51.05 50.25 50.26 49.03 48.65 48.62 48.08 47.78 47.61 47.41 47.70 46.64 45.96 45.47 44.69 44.51 43.92 42.63
49.39 50.98 50.69 50.11 48.85 48.21 47.72 47.01 46.25 45.83 45.65 45.46 45.75 46.18 45.92 45.67 45.51 44.46 43.93 43.29 42.45 41.68
49.82 48.93 48.48 47.71 47.12 46.31 46.32 45.72 44.98 44.72 44.67 44.76 44.66 44.97 44.57 44.39 43.52 42.14 42.12 42.36 41.05 40.14
47.62 47.60 46.85 45.88 45.77 46.12 45.23 45.44 44.76 44.46 44.25 44.04 43.78 43.94 42.85 42.09 42.36 40.70 39.00 39.49 39.52 38.17
46.18 45.59 45.31 45.21 45.40 45.26 44.91 44.62 44.37 44.20 43.59 43.39 43.33 42.67 41.94 41.09 40.46 39.73 39.19 38.61 37.96 37.28
44.61 45.02 45.14 44.99 44.57 44.58 44.58 43.90 43.66 43.66 43.19 41.36 40.28 40.95 40.21 39.09 38.14 37.99 38.06 38.33 38.12 37.26
44.59 44.69 44.42 44.24 44.31 44.24 44.02 43.60 43.61 42.98 41.73 40.64 39.83 39.29 38.81 38.95 38.40 37.59 37.37 37.55 36.81 36.38
42.78 42.47 42.75 43.24 43.44 43.42 43.11 43.08 42.95 41.33 40.18 39.66 39.16 33.21 33.68 33.24 36.80 36.64 35.98 34.84 35.08 35.20
41.25 40.98 41.47 42.06 42.32 42.25 42.25 42.34 41.06 39.71 39.35 38.85 39.82 33.88 33.13 31.20 34.71 35.25 35.36 34.62 33.88 33.29
40.79 40.46 41.21 41.43 41.61 41.93 42.04 40.95 39.46 38.92 39.29 37.26 38.03 33.17 31.89 30.54 33.71 35.13 34.93 34.37 33.70 32.90
40.43 40.02 40.62 40.59 41.03 41.17 40.64 39.79 38.02 38.18 38.29 37.81 36.75 31.64 31.06 30.23 33.52 33.57 32.75 32.90 33.40 32.58
40.41 40.18 39.99 39.92 38.96 39.62 39.94 38.96 37.65 36.59 37.12 33.60 36.09 31.20 30.63 30.21 32.74 33.03 30.00 31.93 32.10 29.42
40.41 40.04 39.89 39.21 38.62 38.07 38.47 37.35 35.95 35.06 35.44 35.88 35.75 34.64 30.66 29.50 30.48 30.44 29.81 29.51 30.07 31.09

GFSNIL_sfc_wetblb_054.txt.gz
Wetbulb
52.09 51.48 50.70 49.67 48.63 48.50 47.88 47.78 48.39 47.28 46.62 46.05 46.05 45.23 44.65 44.64 43.75 43.45 42.03 41.86 40.77 40.77
50.73 49.50 49.02 49.55 49.24 48.22 47.59 46.57 45.18 44.50 44.11 43.78 43.60 43.60 43.26 42.03 42.81 41.65 40.96 40.27 40.66 40.19
48.34 48.65 49.79 48.40 47.24 46.39 45.15 44.84 43.91 43.15 42.87 42.67 42.68 42.57 41.87 40.91 41.75 40.61 40.47 40.51 39.20 38.19
48.84 48.63 47.31 46.12 45.33 44.34 44.18 43.61 43.13 42.98 42.46 42.23 41.88 41.79 40.95 40.91 40.18 39.35 38.89 37.59 37.49 37.23
48.68 46.72 45.64 44.85 44.36 44.32 43.21 43.65 42.93 42.88 42.55 42.30 41.93 41.52 40.29 39.07 38.77 37.95 36.41 36.85 36.94 36.11
45.42 44.55 43.76 43.73 43.98 43.79 42.96 42.58 42.32 42.32 41.67 41.47 40.09 38.96 38.66 37.87 37.87 36.59 37.35 37.24 36.12 35.48
43.33 43.44 43.59 43.53 43.12 43.00 42.95 42.00 41.74 41.96 41.79 40.67 38.58 39.04 38.50 38.37 37.24 35.70 35.64 36.27 35.75 35.41
43.44 43.47 43.12 42.56 43.07 43.07 42.65 42.11 42.08 41.37 40.13 39.72 39.18 39.36 36.49 36.85 34.67 35.52 35.10 35.81 35.31 33.49
42.18 41.75 41.48 41.93 41.97 41.91 41.59 41.43 41.21 39.94 38.91 38.11 39.14 35.20 34.54 33.28 32.70 33.76 33.16 31.65 31.38 31.47
41.07 40.75 40.85 40.98 40.74 40.55 40.20 40.37 39.80 38.00 37.62 37.09 37.47 34.97 33.75 31.92 31.41 31.10 30.95 30.26 29.66 30.46
40.37 39.72 40.06 40.19 40.19 40.00 39.93 38.55 37.84 35.72 36.59 36.52 36.61 34.77 33.21 31.76 29.92 30.06 30.77 30.08 29.57 28.67
39.79 39.11 39.14 38.84 39.11 38.60 37.53 37.50 36.66 36.06 35.20 34.88 33.74 33.47 32.66 30.53 28.91 29.31 29.01 29.67 29.37 29.57
39.38 39.26 38.68 38.63 37.67 37.29 36.06 36.51 36.00 34.81 34.33 34.38 33.71 32.98 31.90 30.39 27.95 26.47 28.14 28.19 28.81 27.69
39.37 38.70 38.72 38.11 37.42 36.48 35.65 35.13 32.55 31.95 32.20 32.25 32.71 33.14 32.13 31.58 27.80 27.09 27.75 27.80 26.64 26.69

GFSNIL_sfc_wetblb_057.txt.gz
Wetbulb
48.02 46.87 47.74 47.58 46.83 45.90 45.19 45.19 42.15 41.31 41.32 41.09 41.01 40.35 40.14 39.50 39.27 40.47 39.49 38.33 38.48 38.42
46.54 47.03 47.09 47.38 46.91 46.86 43.34 43.32 40.59 40.18 39.75 39.80 39.79 39.71 39.30 38.33 37.96 38.65 38.44 37.93 38.55 38.35
46.42 47.11 47.78 46.92 45.91 43.20 40.83 40.74 40.12 39.50 39.40 39.38 39.35 39.40 38.56 37.78 38.33 37.45 36.83 37.06 35.89 36.53
46.57 47.71 46.52 44.74 42.18 40.49 40.25 40.16 40.06 40.15 39.72 39.65 39.10 39.24 38.05 37.50 37.31 36.51 35.38 35.18 35.25 35.05
48.02 46.72 44.10 42.41 40.58 40.09 39.40 40.14 39.93 40.31 39.80 39.94 39.27 37.99 36.88 36.26 36.02 35.17 33.89 34.32 34.43 35.79
46.15 42.46 40.91 39.46 39.99 39.85 39.57 39.48 39.71 40.39 39.85 39.60 37.89 36.71 36.73 36.66 36.16 34.86 34.31 34.41 33.21 33.12
41.21 41.27 40.31 40.42 40.48 39.92 40.33 40.09 39.75 39.87 40.08 38.96 36.69 37.17 37.18 36.43 34.49 34.01 34.51 34.17 33.97 33.66
39.76 39.04 38.98 38.90 39.32 40.45 40.47 40.15 39.81 39.55 38.49 37.85 37.56 37.94 35.37 35.57 34.81 32.63 32.27 32.16 33.02 31.79
39.76 38.31 38.53 38.62 39.08 39.47 39.42 39.30 38.94 37.61 37.18 36.31 37.73 35.76 34.81 32.81 31.42 33.33 31.79 29.39 29.66 29.13
39.15 38.25 38.58 39.45 39.15 38.87 38.08 37.69 36.69 36.07 35.85 35.17 35.49 35.14 34.39 33.10 30.12 30.66 30.53 28.57 27.34 28.57
39.21 38.68 38.73 38.56 38.28 37.70 36.79 35.59 34.72 34.53 34.28 33.89 35.41 35.31 34.42 32.84 30.06 28.06 28.37 27.69 26.96 26.30
38.72 38.08 38.07 36.84 36.17 35.58 34.62 34.39 33.64 33.82 32.62 32.58 32.49 34.59 33.75 32.08 26.52 27.38 27.60 28.05 27.43 27.85
38.28 37.91 37.15 36.08 35.53 35.55 34.53 34.44 34.11 33.14 32.35 33.26 31.07 34.23 33.87 31.64 25.85 24.09 26.85 26.97 27.39 28.02
38.12 37.06 36.41 34.28 34.11 33.94 33.20 31.95 30.07 30.05 29.54 30.09 30.49 30.36 34.02 32.85 27.62 25.94 26.27 26.89 25.94 25.18

GFSNIL_sfc_wetblb_060.txt.gz
Wetbulb
46.27 45.61 46.20 46.89 46.66 45.99 45.35 43.55 43.02 41.32 39.60 38.93 38.78 38.35 37.93 37.05 36.53 37.43 37.67 37.12 37.06 37.29
46.50 47.04 45.70 47.21 47.10 46.29 45.26 42.81 40.66 39.30 38.24 38.23 38.34 38.15 38.17 36.58 36.51 36.38 36.26 35.99 35.87 36.30
46.19 47.29 46.75 45.84 46.78 44.03 42.46 41.39 39.32 38.17 38.23 38.07 38.13 38.87 37.90 36.27 36.43 35.59 34.78 35.34 34.23 34.69
46.06 47.02 46.44 44.69 42.80 41.99 40.30 39.41 38.83 38.90 38.45 38.53 38.67 39.10 36.85 36.21 35.97 34.98 33.95 33.84 34.21 34.79
47.12 46.80 45.06 42.54 41.19 41.02 39.19 38.93 38.76 38.90 38.93 39.30 39.42 38.09 36.51 35.57 35.80 35.02 33.75 33.32 33.44 33.80
47.56 42.20 40.61 40.57 40.09 38.99 38.35 38.05 38.02 39.12 38.98 39.16 39.21 36.71 35.47 35.87 35.92 34.91 33.48 33.69 32.85 32.69
41.36 40.68 39.70 39.25 38.19 38.77 38.77 38.56 39.54 39.55 39.39 39.21 37.25 36.55 36.92 36.51 34.47 33.04 33.55 33.90 32.89 32.58
39.03 39.60 38.49 37.34 36.83 37.71 39.49 39.21 38.86 38.60 38.04 37.51 37.09 36.90 35.51 34.85 33.90 31.73 31.33 31.98 32.50 31.63
38.43 37.21 38.06 36.95 38.91 38.95 38.59 38.67 37.82 37.28 36.13 35.61 36.70 36.91 35.99 33.84 30.69 31.96 32.44 32.35 31.60 30.34
37.66 36.63 37.05 38.61 38.22 37.58 37.14 36.47 35.46 35.17 34.71 34.19 34.49 36.25 35.32 34.01 30.99 30.25 28.80 28.91 28.01 27.98
37.44 38.16 37.88 37.70 37.12 35.98 35.94 34.63 33.78 33.46 33.84 32.81 33.93 35.84 35.32 34.30 28.64 28.78 28.37 27.42 27.14 26.73
37.98 36.80 37.00 36.02 35.25 34.71 34.15 33.83 33.28 33.55 32.74 32.01 31.00 34.73 34.88 32.85 28.83 27.02 26.95 28.62 28.07 26.88
37.03 36.65 36.06 34.89 33.75 33.22 32.35 32.63 32.34 32.01 31.36 32.18 30.46 33.25 34.74 33.66 26.32 27.16 27.06 27.64 27.40 29.49
37.30 36.23 35.57 33.87 32.53 31.31 29.99 28.80 28.53 29.13 29.15 29.65 30.56 29.50 33.50 34.97 27.99 27.75 27.63 27.13 26.48 26.36

GFSNIL_sfc_wetblb_063.txt.gz
Wetbulb
47.13 46.13 45.85 45.04 44.24 45.02 45.22 43.13 44.12 43.78 41.78 40.07 38.58 37.54 36.79 35.79 35.90 36.26 35.59 35.20 35.13 35.64
47.22 46.67 46.26 46.74 46.79 45.56 45.86 45.37 42.83 41.18 38.93 37.92 37.68 37.67 36.79 35.82 35.26 35.13 35.24 34.20 34.08 34.32
46.69 46.71 47.02 47.79 46.77 46.23 44.62 42.63 40.77 39.41 38.48 37.81 37.63 37.54 37.84 36.22 35.64 34.94 33.95 34.35 33.25 33.21
46.31 46.28 46.47 45.28 45.19 43.81 42.13 40.78 39.87 38.95 37.34 37.38 37.74 38.05 36.59 35.42 35.39 34.28 33.65 33.24 32.56 33.06
45.55 44.46 45.08 45.47 43.88 41.50 38.59 39.99 38.66 38.07 37.99 38.04 37.81 37.24 35.87 34.42 35.02 33.82 32.83 32.97 32.41 33.12
46.84 44.88 43.15 41.42 40.74 38.48 38.55 38.22 37.28 37.52 37.39 37.44 37.34 37.08 35.76 34.84 34.58 34.54 33.84 33.12 31.94 32.29
43.78 43.04 40.02 38.47 38.69 38.64 38.12 37.37 38.04 37.63 37.79 37.66 37.43 36.96 35.99 35.94 35.00 33.38 33.04 32.79 32.42 31.82
41.42 39.50 37.73 38.20 36.24 36.49 38.99 37.39 37.48 37.22 37.00 37.20 36.90 36.24 35.40 34.93 34.01 32.67 31.19 30.49 31.80 31.83
37.33 37.62 37.43 37.51 36.45 37.58 36.64 36.93 36.09 35.44 35.49 35.14 36.23 36.46 36.72 34.78 31.45 31.00 30.45 29.80 30.84 32.56
38.35 37.84 37.40 38.05 37.53 35.71 34.77 35.26 34.38 33.59 33.38 33.20 33.52 35.68 36.85 35.44 30.75 29.96 29.64 28.94 28.54 28.28
36.58 37.49 37.43 36.84 35.43 34.50 34.78 34.07 33.04 32.21 32.22 31.79 32.81 35.34 35.97 35.15 30.56 28.76 28.65 30.67 28.29 26.74
37.80 36.77 36.20 34.80 34.30 33.72 33.09 32.20 31.41 31.75 31.37 30.60 30.48 33.91 34.77 33.76 29.44 28.23 28.41 28.73 28.30 27.85
37.29 35.63 34.86 34.49 33.13 32.12 30.96 31.30 30.19 29.54 30.08 31.49 29.92 32.34 34.04 33.84 29.29 29.03 27.74 26.72 28.19 30.52
36.41 35.18 34.38 33.16 32.37 31.24 30.01 28.59 27.76 28.05 28.29 28.55 29.32 29.26 32.88 33.45 32.55 29.59 27.57 27.37 27.54 27.55

GFSNIL_sfc_wetblb_066.txt.gz
Wetbulb
50.67 49.23 47.72 46.25 43.92 43.59 43.73 44.03 45.09 45.31 43.93 41.35 40.22 37.70 37.72 36.02 35.67 36.06 35.94 35.73 35.68 35.93
49.27 47.42 45.83 45.76 46.29 46.00 43.90 45.48 45.27 44.12 41.63 39.74 39.33 38.91 36.53 35.65 35.71 35.46 35.13 34.96 35.22 34.61
45.46 46.06 47.14 46.10 45.54 45.75 45.55 45.24 44.45 41.86 39.79 39.38 38.68 37.88 36.35 35.55 35.22 35.25 34.83 34.50 33.70 33.63
45.58 45.50 46.42 46.20 45.92 45.59 45.15 44.65 41.50 40.24 39.31 38.91 36.58 37.93 37.25 36.16 36.14 35.08 34.14 34.10 33.34 33.32
44.38 44.55 45.31 44.61 45.21 44.75 42.93 41.40 38.52 38.71 39.15 38.29 37.51 37.29 36.88 35.76 35.76 34.34 33.45 33.64 32.67 32.41
45.29 45.36 44.06 45.04 44.18 42.42 37.79 37.82 38.63 38.81 38.76 37.43 37.58 36.93 36.28 35.50 34.58 34.04 33.89 33.69 32.59 31.71
46.18 44.88 42.50 40.56 38.91 37.66 38.69 38.54 38.55 38.23 37.76 37.48 36.88 36.53 36.65 35.42 34.14 33.75 33.28 32.69 31.95 31.59
42.18 40.31 39.44 38.65 38.33 38.14 38.88 38.25 37.93 36.80 36.23 35.96 36.43 36.40 34.94 34.40 33.80 32.40 31.84 31.54 31.16 31.04
40.09 38.27 37.87 37.05 37.67 37.98 37.62 37.25 35.97 34.91 34.64 34.62 35.48 36.32 36.73 35.47 32.36 31.80 31.15 30.09 30.34 30.65
38.03 37.62 36.25 38.07 37.51 36.61 35.68 36.27 34.79 34.09 33.14 32.41 32.59 35.12 36.48 36.08 32.42 30.81 29.99 29.34 29.74 30.35
37.76 37.49 37.38 36.81 36.15 35.31 34.92 34.26 33.38 32.21 31.71 30.97 31.77 34.58 35.27 35.34 32.08 30.15 30.07 29.45 29.05 28.67
37.80 36.64 36.39 34.85 34.40 33.96 32.76 32.12 31.22 31.02 29.81 29.27 29.81 33.15 33.86 33.47 30.29 29.75 29.26 29.97 29.19 28.26
36.97 36.53 35.19 34.38 33.86 32.13 30.47 30.10 29.86 29.23 29.23 30.84 29.86 31.98 33.42 33.11 28.20 30.62 30.43 30.43 28.72 30.38
36.39 34.91 34.65 32.59 31.06 30.29 29.53 29.06 28.10 27.98 28.34 28.44 29.15 29.11 32.50 33.55 30.53 30.67 29.82 29.20 28.19 28.17

GFSNIL_sfc_wetblb_069.txt.gz
Wetbulb
57.50 55.07 55.16 54.84 53.86 53.04 52.08 50.65 49.75 49.10 46.94 44.62 43.67 43.33 43.09 43.58 45.05 45.03 44.86 44.68 44.53 44.24
56.40 55.48 55.14 54.89 54.07 52.48 51.01 48.83 49.52 49.44 45.29 44.52 42.92 44.07 44.69 44.83 44.51 44.66 44.57 44.34 44.03 42.64
57.10 57.22 55.57 53.26 51.00 49.78 49.37 49.37 49.45 46.12 44.42 43.29 44.57 44.62 44.22 44.14 43.96 43.46 43.72 42.97 42.17 41.79
55.54 54.48 52.42 51.27 49.55 49.44 49.06 46.45 46.03 45.27 44.61 44.54 44.27 43.98 43.74 43.77 43.32 42.30 42.56 41.98 41.20 40.94
50.53 50.49 50.66 49.47 49.23 49.30 46.39 47.78 44.99 44.54 44.63 43.83 43.28 43.72 43.09 42.77 42.26 41.86 41.26 41.05 40.64 39.72
49.43 48.38 48.14 47.61 47.45 46.45 45.61 46.19 44.92 44.10 42.97 43.21 43.27 42.92 42.90 42.58 42.07 41.67 41.26 40.94 40.50 39.96
47.94 47.52 46.23 46.06 44.98 42.56 41.38 42.83 42.26 42.77 43.15 43.03 42.44 42.14 42.18 42.04 41.77 41.13 40.58 40.78 40.35 39.86
45.28 42.69 41.59 40.98 41.32 40.92 42.23 42.83 42.52 42.18 42.18 42.18 41.46 40.81 41.47 41.19 41.06 40.53 40.28 40.50 39.67 39.52
41.01 39.98 40.12 39.90 38.89 41.04 41.79 41.32 41.29 41.24 40.86 40.25 39.29 36.57 36.56 37.47 40.19 39.96 39.46 38.82 39.47 39.03
38.98 39.60 39.39 39.04 40.89 40.24 39.82 41.32 40.51 40.25 39.88 39.63 39.81 35.49 35.84 35.81 38.70 38.93 38.88 38.77 38.19 37.10
38.91 38.40 38.29 40.81 40.02 40.40 40.52 39.92 39.99 39.93 39.28 38.76 38.18 34.57 34.77 34.69 37.85 38.32 38.47 38.04 37.67 36.89
39.21 38.78 40.81 40.26 39.88 39.83 39.46 39.48 38.92 38.33 38.21 37.66 37.73 34.39 33.78 34.28 37.02 36.40 36.53 36.96 36.97 36.47
39.14 40.68 39.19 38.93 38.92 39.47 38.58 37.79 37.97 37.22 37.77 36.24 36.51 35.16 34.03 34.44 36.54 35.38 34.87 35.46 35.00 33.05
39.38 38.65 38.67 37.89 37.68 37.34 37.36 36.61 36.15 34.72 35.98 36.23 35.67 35.97 34.37 33.98 35.13 35.18 34.23 33.53 33.05 32.95

GFSNIL_sfc_wetblb_072.txt.gz
Wetbulb
62.29 61.63 60.12 58.14 58.03 57.73 56.79 57.07 57.20 55.81 54.74 53.55 45.54 45.51 46.16 47.81 49.04 49.11 48.07 47.08 46.72 46.27
61.54 60.70 59.88 59.48 60.37 59.15 58.73 57.19 55.55 54.60 52.47 47.73 46.03 46.23 46.41 48.19 48.70 48.27 47.90 47.37 47.20 46.31
61.54 61.43 59.38 60.02 59.93 58.91 57.66 55.03 53.73 51.42 48.18 46.01 45.56 47.04 48.68 48.49 48.43 47.36 47.27 46.81 46.29 45.96
60.61 59.62 59.08 58.30 57.31 56.02 54.00 51.79 49.89 47.79 47.88 51.08 48.64 48.75 48.35 47.93 47.39 46.31 46.30 46.54 45.68 45.03
57.68 55.42 52.58 52.65 52.21 52.08 49.90 49.35 49.03 49.22 49.46 48.09 48.15 48.28 47.41 46.65 46.27 45.71 45.14 45.29 45.18 44.39
51.84 51.68 51.18 49.71 49.88 48.71 48.75 49.37 47.13 47.64 47.53 47.41 47.14 46.88 47.05 46.36 45.80 45.46 45.12 44.99 44.54 44.12
50.82 49.79 48.32 47.42 46.31 45.34 44.68 44.01 43.77 45.65 46.22 45.96 46.64 46.21 45.82 45.24 44.74 44.76 44.38 44.46 44.31 43.97
48.86 46.95 44.52 43.90 43.24 44.92 44.48 43.46 43.82 46.01 45.72 46.33 45.93 44.70 44.54 43.79 43.50 43.20 42.94 43.46 43.46 43.71
45.73 43.14 42.23 41.28 42.89 42.22 42.00 43.40 45.72 45.90 46.61 45.43 43.58 38.23 37.10 37.69 41.88 41.81 41.48 41.44 42.24 42.66
42.11 41.01 41.98 41.97 41.68 41.57 43.65 46.27 46.68 45.67 44.16 43.40 43.77 37.52 36.57 35.99 40.13 40.34 40.69 40.83 40.80 40.60
41.27 40.14 41.20 43.86 42.77 44.23 46.62 44.92 44.18 43.70 43.66 42.86 42.41 36.74 35.86 35.08 39.58 40.13 40.51 40.76 40.80 40.41
40.69 41.57 44.13 42.91 44.78 44.80 44.03 43.38 42.68 42.47 42.11 41.67 41.86 36.54 35.11 35.22 39.56 39.23 39.63 40.23 40.53 40.28
44.56 40.63 43.39 44.10 42.88 43.60 42.79 41.23 41.61 40.85 41.45 39.30 40.49 37.45 35.74 35.95 38.19 37.20 37.96 38.86 39.01 36.12
43.04 43.21 42.35 41.63 42.42 42.19 41.57 40.94 40.32 38.20 38.99 38.72 38.34 37.85 34.99 34.52 35.12 34.72 34.93 34.05 34.75 36.10

GFSNIL_sfc_wetblb_075.txt.gz
Wetbulb
64.71 63.51 61.87 61.23 60.32 59.18 57.88 59.44 59.77 58.45 58.22 56.66 55.07 52.27 49.99 48.87 47.54 49.40 50.32 49.14 48.31 47.34
63.71 63.14 62.43 62.44 61.80 59.73 58.65 58.99 58.54 58.56 56.87 55.13 52.57 49.22 47.26 45.94 48.32 49.65 49.63 49.03 48.67 47.44
62.55 62.77 62.34 62.09 60.35 58.89 57.81 58.85 57.81 56.57 54.33 50.63 47.31 46.90 46.15 47.86 49.58 49.43 49.25 48.34 47.55 47.31
61.25 62.00 60.81 60.16 58.03 57.59 56.75 55.78 54.12 50.14 47.91 47.65 48.33 49.12 48.04 49.07 49.09 48.34 47.94 47.75 47.04 46.63
60.64 57.36 55.48 53.42 53.51 53.42 51.55 51.12 48.99 48.39 49.61 50.83 49.84 48.64 48.29 48.04 48.04 47.16 46.26 46.83 46.72 45.79
53.43 52.62 51.67 51.41 50.81 50.18 48.96 48.95 49.91 49.04 47.18 46.77 47.31 48.23 48.38 47.86 47.64 47.09 46.86 46.47 45.30 44.83
53.09 51.68 50.20 49.81 50.10 49.33 47.79 46.43 45.70 46.33 46.56 46.59 47.45 47.26 47.45 47.60 46.76 45.94 45.26 45.14 44.76 44.28
50.58 49.78 50.77 49.06 47.91 46.79 45.43 45.01 46.34 45.22 45.18 46.93 46.96 47.07 47.41 46.21 44.67 43.49 43.18 43.63 43.65 44.17
50.01 48.88 46.10 44.61 44.85 44.87 44.50 44.16 44.38 45.44 46.78 47.02 47.28 38.06 38.55 37.76 41.50 41.52 41.21 40.98 41.78 42.54
47.22 45.29 44.10 42.95 42.85 43.00 44.23 44.56 46.14 46.84 47.35 46.31 45.54 38.96 37.78 36.54 40.34 39.97 40.14 40.39 40.85 40.46
45.55 44.61 44.47 44.73 45.03 45.33 46.08 46.81 47.47 46.10 45.09 44.47 43.77 38.78 37.27 36.01 39.87 40.01 40.44 40.86 41.00 41.58
46.12 44.27 42.59 43.58 45.37 46.68 46.90 45.26 44.81 44.22 42.99 42.30 42.39 36.66 35.83 35.73 40.09 39.64 39.47 40.15 40.02 39.93
43.92 45.28 45.87 45.45 46.03 45.38 44.78 43.18 42.62 41.78 41.99 39.02 40.95 35.99 35.41 35.60 36.78 35.52 35.78 36.38 36.58 34.43
45.78 44.76 44.67 44.56 43.91 42.78 42.09 41.53 41.36 39.52 39.55 38.53 37.80 37.49 34.31 33.80 33.60 33.18 33.20 32.78 33.68 35.45

GFSNIL_sfc_wetblb_078.txt.gz
Wetbulb
63.66 62.58 61.90 61.02 59.08 57.80 57.54 56.45 56.49 56.94 56.39 55.94 53.94 51.09 49.66 48.43 47.98 47.00 46.62 46.41 45.12 44.42
63.24 63.09 61.82 60.53 59.93 59.33 58.53 57.86 57.60 56.74 55.53 53.82 50.97 49.08 48.97 46.18 45.88 46.22 46.87 47.26 45.97 45.08
62.43 63.38 62.35 60.94 59.84 59.37 58.22 57.44 55.96 55.05 51.62 49.47 48.65 47.00 46.34 45.97 46.45 46.61 47.24 46.41 45.53 44.51
62.98 62.09 61.07 60.15 58.74 57.75 55.37 53.16 49.91 49.69 48.57 47.81 47.50 47.70 46.55 46.79 46.87 46.90 46.41 45.79 45.04 44.02
60.99 60.33 59.20 56.77 54.59 52.68 50.71 50.15 49.15 48.96 48.52 48.54 49.64 50.01 47.64 46.22 46.46 45.79 45.44 44.98 44.59 44.47
57.98 56.96 55.31 54.02 52.70 51.53 50.11 49.54 49.14 48.94 48.84 48.34 47.73 47.09 46.60 46.28 46.18 45.45 45.27 43.98 42.86 42.14
54.90 53.53 51.89 50.65 49.99 49.48 49.45 49.14 48.46 48.19 47.45 47.09 46.93 46.76 46.96 46.64 45.15 43.68 42.78 42.75 41.65 41.14
50.51 50.45 49.98 49.37 48.99 48.70 48.07 47.11 46.61 46.63 46.77 46.76 46.37 46.68 45.02 44.53 41.45 39.11 38.97 39.93 41.19 40.54
49.95 49.19 48.85 47.79 47.22 45.47 45.06 45.28 45.44 45.42 45.43 44.47 45.51 37.29 38.23 39.32 37.98 38.50 38.19 37.32 38.01 38.62
47.49 46.23 44.98 45.25 45.20 44.28 43.61 43.47 43.35 43.79 43.87 44.56 44.02 38.47 38.20 36.46 37.83 37.02 36.62 36.08 36.29 37.48
46.08 44.86 43.72 43.56 43.21 42.32 43.32 42.80 43.32 44.78 44.50 42.33 41.84 38.76 37.36 35.86 36.59 35.90 36.55 37.06 37.07 36.42
44.38 43.37 43.17 43.06 43.81 43.93 44.54 45.23 43.53 43.02 41.86 39.96 37.36 36.04 34.73 35.91 36.01 36.00 34.32 35.55 34.84 34.52
45.69 44.22 43.38 43.73 44.69 45.81 45.24 44.10 42.64 40.28 40.06 37.74 34.96 34.62 33.91 33.55 31.59 29.92 29.66 31.16 32.33 32.82
43.72 43.83 45.35 45.12 43.85 42.53 40.87 40.14 36.06 34.63 34.23 35.04 34.78 32.90 33.37 32.43 29.38 28.37 27.83 27.84 28.33 29.23

GFSNIL_sfc_wetblb_081.txt.gz
Wetbulb
59.45 59.25 59.07 59.28 58.79 57.77 56.78 55.94 55.49 55.37 54.54 54.58 53.14 51.81 50.56 49.11 47.44 46.84 45.57 45.01 44.91 44.62
60.73 59.26 59.23 59.19 58.63 57.51 56.64 55.91 54.52 55.45 54.75 52.35 50.53 50.42 48.91 47.73 46.36 46.20 46.25 45.26 45.93 45.76
61.01 60.64 59.37 58.94 57.89 57.13 56.69 56.17 55.37 53.76 50.98 49.31 48.39 47.73 46.94 46.26 46.75 46.15 45.90 47.02 46.50 44.67
61.05 60.00 59.33 58.67 57.50 57.37 56.62 54.91 52.95 49.44 47.95 48.08 49.01 48.29 47.03 46.73 46.89 46.41 46.19 46.46 45.22 43.95
60.81 59.75 59.23 58.96 57.99 55.53 52.43 50.56 49.64 49.20 49.67 49.25 48.14 48.02 47.55 47.03 47.64 46.29 45.06 44.84 44.39 42.90
59.44 58.56 57.05 55.34 54.48 53.19 51.02 49.95 50.06 49.64 48.67 48.44 49.06 48.99 48.04 46.98 46.78 45.55 45.23 43.87 41.71 41.55
55.92 55.58 54.44 52.19 51.74 51.61 50.45 49.35 49.29 49.16 49.03 48.74 48.71 47.87 47.46 46.66 45.26 44.20 42.76 41.84 40.18 39.48
52.49 52.63 51.17 50.89 50.27 49.79 50.28 49.13 48.62 47.87 47.62 47.69 47.26 46.99 45.92 45.90 41.80 37.46 36.70 37.14 37.99 37.69
50.05 50.03 49.38 49.14 48.62 47.84 46.96 46.93 47.09 47.14 47.10 45.86 46.54 42.00 39.94 38.31 36.13 36.71 35.80 34.53 34.84 35.17
48.82 47.39 46.64 46.57 45.96 45.53 45.53 45.84 45.66 45.53 45.23 44.38 43.61 37.49 37.71 36.62 35.65 34.65 33.76 32.98 33.06 34.65
46.24 45.49 45.62 45.68 45.18 44.36 44.23 43.84 43.70 43.28 43.57 42.30 38.80 37.01 36.36 35.56 34.14 33.51 34.30 34.19 33.44 32.12
45.09 44.05 44.40 43.64 43.16 42.94 42.54 42.09 42.44 43.14 41.09 36.90 35.58 34.82 34.90 34.75 32.93 32.14 31.10 32.94 32.19 31.69
44.84 44.41 43.49 43.17 42.96 43.36 43.80 43.32 40.26 38.17 36.49 34.31 31.95 33.67 33.96 32.26 29.52 28.58 28.12 28.82 29.84 30.71
44.74 43.72 43.55 43.76 44.31 42.75 39.19 36.69 32.66 32.20 32.41 31.77 31.18 31.80 32.97 31.34 27.86 26.96 26.94 26.99 27.07 27.28

GFSNIL_sfc_wetblb_084.txt.gz
Wetbulb
58.54 57.76 57.89 57.97 58.66 57.91 57.78 57.95 58.36 57.28 55.49 53.83 53.17 52.99 51.65 48.95 48.02 47.37 47.17 46.20 45.50 44.86
59.74 58.83 57.77 58.25 59.03 58.52 58.78 58.37 55.80 56.22 54.75 52.73 51.56 50.17 49.13 48.12 47.10 47.28 46.61 46.33 46.33 45.92
59.92 59.45 58.87 58.17 58.25 58.38 57.78 56.95 55.22 55.36 52.87 49.73 48.95 48.36 48.34 47.65 46.94 47.35 46.79 46.49 45.94 46.42
59.93 59.97 59.27 58.44 58.17 57.94 56.68 55.84 55.24 53.72 51.01 49.39 49.10 49.31 49.21 48.33 47.30 46.58 45.89 46.90 46.63 46.21
59.57 59.71 58.94 58.34 57.52 56.68 55.60 55.16 52.90 51.77 50.35 49.54 49.55 49.25 48.27 47.06 46.83 46.00 46.19 46.28 45.76 45.30
59.02 58.44 57.94 58.13 57.08 56.60 54.29 52.48 51.88 50.91 50.28 49.09 48.68 48.72 48.04 47.89 47.52 46.83 46.21 45.46 44.73 43.72
58.47 58.68 58.35 56.66 56.86 55.66 53.41 51.36 50.94 51.30 50.19 49.29 49.33 49.05 48.57 47.77 46.90 46.28 45.51 44.35 42.62 40.88
55.32 56.46 55.62 54.57 54.07 52.07 51.47 51.24 50.60 49.71 49.30 49.47 49.16 48.75 47.86 47.13 45.39 43.62 40.53 38.71 37.03 36.33
51.04 51.40 51.76 50.90 50.12 49.92 49.74 49.44 49.04 48.41 47.83 47.28 47.85 41.79 42.91 42.83 41.49 39.38 36.63 34.15 33.71 35.61
49.54 48.49 47.80 48.47 47.87 47.22 47.21 47.57 47.06 47.13 46.99 45.99 44.65 40.53 39.54 36.96 36.36 35.14 33.33 32.02 33.24 34.70
47.89 46.61 46.70 46.67 46.34 45.89 46.25 46.06 45.70 45.32 45.04 44.47 40.88 36.88 36.60 35.09 32.97 33.60 34.28 33.39 31.69 30.47
47.08 46.22 45.95 45.32 44.62 45.13 45.31 44.73 44.01 43.83 41.80 37.97 36.22 35.45 35.23 34.71 33.32 31.59 30.32 30.97 30.91 29.92
45.80 45.43 44.63 44.19 43.97 44.13 43.45 41.62 39.66 37.59 36.66 34.60 33.98 34.31 33.77 32.28 29.75 28.08 27.39 28.38 29.13 29.93
45.51 45.13 44.67 44.15 43.57 42.50 38.72 35.72 34.28 32.82 32.85 32.33 32.45 32.81 32.58 30.97 27.54 27.48 27.14 26.74 26.67 27.03

GFSNIL_sfc_wetblb_087.txt.gz
Wetbulb
53.56 53.83 55.14 55.43 56.22 56.61 56.68 56.89 56.76 56.66 57.41 55.82 53.93 52.86 51.01 50.25 49.20 48.62 47.91 46.54 46.48 45.53
53.94 54.65 55.32 56.22 56.90 57.41 57.86 57.95 57.39 57.09 56.44 54.87 53.18 52.34 50.19 48.54 48.54 47.94 48.15 47.45 46.32 46.20
54.92 55.80 56.23 57.19 56.89 57.45 58.13 57.76 56.73 55.44 55.24 53.50 51.56 50.64 49.95 49.20 48.79 48.36 47.74 47.36 46.05 46.59
56.65 57.51 58.11 58.08 57.57 57.56 57.86 56.22 55.34 55.10 54.80 52.48 50.87 50.58 49.87 48.93 48.69 48.00 47.25 46.93 46.36 45.95
57.55 58.17 58.46 58.20 58.26 57.35 56.48 55.92 55.62 54.47 53.07 52.00 50.91 50.33 49.86 48.27 48.14 48.12 46.89 46.66 45.85 45.55
56.14 57.63 58.03 58.22 56.65 56.20 56.44 55.68 54.47 54.15 53.11 51.39 51.13 50.30 50.11 49.17 48.40 47.68 47.00 46.33 46.02 45.67
55.87 57.06 57.71 57.86 56.12 56.38 55.86 56.16 54.86 53.31 52.51 51.41 50.83 50.46 49.04 48.52 47.64 47.61 46.86 46.27 45.63 44.77
56.59 56.64 56.10 56.38 56.54 56.94 57.00 56.38 53.86 52.81 51.67 51.27 50.00 49.46 48.69 48.33 47.25 46.98 44.77 43.73 42.65 41.50
53.62 54.87 55.01 54.35 54.57 52.27 51.47 51.41 52.16 51.63 50.20 49.16 49.47 42.69 42.86 45.26 45.11 43.92 41.13 37.78 36.19 36.24
51.38 50.11 49.77 50.33 50.33 49.59 49.41 49.75 49.49 49.24 48.73 48.34 47.90 43.46 41.93 39.23 40.92 38.86 36.89 35.08 34.26 34.54
49.77 48.88 48.68 48.46 48.48 47.63 47.96 47.72 47.33 47.00 47.09 45.43 44.11 39.49 38.38 36.49 36.17 35.01 34.54 33.93 33.31 31.52
47.94 47.40 47.04 46.15 45.43 46.06 45.83 45.52 45.47 45.29 43.06 40.97 38.10 35.71 35.19 35.35 33.97 32.30 31.30 31.35 31.22 30.20
46.79 46.32 45.54 45.10 45.04 45.64 44.87 42.56 40.49 37.22 37.17 35.90 35.03 34.90 34.60 33.26 31.63 29.51 28.28 28.81 28.23 29.01
46.01 45.09 44.83 44.29 43.26 39.99 37.99 35.57 33.06 31.58 32.15 32.43 32.47 32.10 32.51 31.80 29.39 28.72 27.86 26.82 26.06 26.58

GFSNIL_sfc_wetblb_090.txt.gz
Wetbulb
51.31 51.31 52.16 52.33 52.74 53.36 54.49 54.98 54.90 55.08 56.27 56.11 55.46 54.92 53.38 53.11 52.27 51.22 50.86 48.46 47.17 46.52
51.45 51.54 51.55 52.32 53.32 54.51 54.86 55.85 54.58 55.02 55.40 55.74 55.44 54.51 53.23 52.56 51.13 50.09 49.70 48.21 47.90 47.19
51.71 51.89 52.41 52.39 53.60 54.63 55.38 55.14 55.34 54.96 55.90 55.20 53.51 52.58 52.10 51.40 50.45 49.89 49.41 49.24 47.70 47.97
52.37 52.41 52.91 53.11 53.71 55.02 55.38 55.87 55.87 55.87 55.20 54.40 52.46 51.71 51.28 50.58 50.08 49.87 49.11 48.86 48.62 47.94
53.35 53.30 53.51 53.88 54.64 55.32 55.44 56.06 56.07 55.70 55.48 55.19 53.17 51.87 51.69 51.16 51.10 49.68 48.79 48.52 48.38 48.06
54.06 54.46 54.65 55.33 55.99 56.73 56.66 56.37 55.66 56.47 55.89 55.68 54.10 53.15 52.97 53.46 51.92 49.96 49.81 49.35 48.44 47.68
53.70 54.61 55.48 56.29 56.71 56.96 56.39 56.96 56.15 55.75 55.51 54.70 53.84 53.21 52.18 51.54 50.91 50.04 50.07 49.02 47.91 47.30
53.52 54.19 53.83 54.92 55.52 55.82 56.89 56.99 56.93 56.41 55.29 53.57 52.82 51.86 51.15 50.39 49.64 48.49 47.36 46.12 45.43 44.34
53.26 53.12 53.04 54.11 54.82 56.06 56.55 55.81 56.13 53.26 52.67 51.44 51.71 46.18 43.97 47.20 48.40 47.07 44.72 41.23 39.18 38.61
51.84 52.62 53.79 53.70 53.76 53.88 53.50 52.47 51.71 51.55 51.37 51.10 50.76 42.37 42.72 42.01 45.97 44.47 40.00 36.72 35.95 35.97
50.88 50.36 50.36 50.90 51.07 49.29 49.09 48.91 47.83 47.10 46.54 44.85 41.77 38.83 38.35 38.08 38.62 36.88 36.26 36.02 34.45 32.25
49.80 48.55 47.81 47.29 46.18 46.38 46.07 45.35 43.85 42.88 41.59 39.05 36.60 35.95 35.85 35.91 34.57 32.67 31.43 31.49 31.34 30.61
47.50 46.87 45.52 45.53 45.37 44.89 43.36 40.65 38.58 36.34 36.10 35.12 34.36 34.79 34.32 33.24 31.16 28.95 28.34 28.69 28.79 29.46
45.49 44.70 44.18 41.88 40.83 38.75 35.80 33.50 31.83 30.42 30.69 31.17 31.72 32.41 33.18 32.61 30.45 29.56 28.63 27.17 25.92 26.28

GFSNIL_sfc_wetblb_093.txt.gz
Wetbulb
55.23 55.28 55.97 56.59 57.00 56.99 57.83 58.02 58.71 59.08 59.78 60.25 60.56 60.38 60.06 59.20 58.43 57.46 54.76 52.75 51.19 53.06
55.18 55.13 55.07 56.03 56.60 56.77 57.55 58.05 58.58 59.33 59.26 59.61 59.77 59.84 59.69 59.28 58.90 58.21 57.37 55.43 53.47 53.86
55.33 55.31 55.81 56.09 56.02 56.67 57.78 58.12 58.37 58.83 58.96 59.21 59.44 59.37 59.08 58.55 58.77 56.59 56.41 54.98 52.61 52.18
55.57 55.52 56.02 55.98 56.32 56.80 57.87 57.86 58.04 58.37 58.68 58.94 59.14 58.46 57.52 57.10 56.31 52.87 52.52 51.52 51.32 50.52
56.14 55.45 55.70 56.04 56.53 57.50 57.16 58.54 58.66 58.34 58.53 58.60 58.29 56.40 53.99 53.59 53.86 52.14 52.07 51.11 50.34 49.89
55.88 55.61 54.79 55.89 56.59 57.33 57.33 57.48 57.91 58.16 58.15 57.79 57.00 55.29 56.45 55.67 54.64 52.86 52.51 52.47 50.74 50.74
56.06 56.10 56.11 56.57 57.09 57.76 57.63 57.41 58.03 58.71 58.51 58.46 58.06 57.17 56.39 55.10 54.10 53.55 53.90 54.52 52.35 50.94
56.78 56.97 56.93 57.73 57.75 58.03 58.67 58.97 59.28 59.20 58.73 58.11 57.41 56.21 54.97 54.31 54.05 53.58 52.34 51.20 50.90 49.55
55.92 55.92 56.68 57.31 57.65 58.44 58.63 58.97 58.89 57.79 57.02 56.65 55.41 47.95 44.86 48.67 51.80 51.66 50.14 47.35 41.63 42.07
55.23 55.09 55.98 56.50 56.90 57.25 57.87 58.15 57.06 56.39 55.41 53.64 51.27 43.60 42.69 40.70 46.86 44.83 40.99 38.39 37.95 36.69
55.02 54.11 54.35 55.14 55.25 53.38 50.96 49.52 47.87 46.23 45.27 41.87 38.43 37.90 38.60 37.88 38.99 37.13 36.37 35.91 34.86 33.73
52.62 50.75 49.30 48.60 47.29 47.06 45.10 42.52 40.92 40.08 38.22 36.48 35.09 35.28 35.50 35.64 33.96 31.44 31.08 31.72 31.74 31.52
47.94 46.95 45.98 45.22 43.39 41.02 38.98 36.99 35.39 33.90 34.05 33.92 33.73 34.22 33.63 32.79 31.11 29.27 28.32 28.67 28.46 29.19
44.40 42.69 41.88 40.66 39.27 36.80 34.59 32.81 31.53 30.57 31.03 31.45 32.02 32.65 32.94 32.37 30.55 29.42 28.17 27.04 26.11 26.76

GFSNIL_sfc_wetblb_096.txt.gz
Wetbulb
59.69 57.94 58.38 59.60 59.42 59.08 58.61 59.28 60.79 60.51 60.27 60.09 59.67 62.10 62.71 62.79 62.19 62.24 61.51 60.95 60.34 59.46
58.90 58.23 58.73 59.93 59.82 59.28 59.93 59.91 60.67 61.35 61.50 61.71 61.61 61.72 62.21 61.64 61.56 62.14 61.70 61.46 61.06 58.75
58.64 59.04 59.35 59.86 59.42 59.82 60.04 59.99 60.12 60.66 61.04 60.85 61.03 61.27 61.21 61.15 61.54 60.95 61.60 61.25 60.64 60.20
59.32 59.41 59.54 59.06 59.32 59.36 59.97 59.93 59.64 59.80 60.14 60.26 60.48 60.86 61.09 60.96 60.59 60.06 60.43 61.07 59.83 58.95
60.03 59.94 59.34 59.48 59.41 59.84 59.31 60.22 60.03 60.03 59.82 60.03 60.16 60.97 61.25 60.30 59.89 59.30 58.78 57.41 56.23 54.73
59.45 59.39 59.29 59.13 59.22 59.96 59.80 59.79 59.99 60.03 59.72 59.68 60.26 60.12 60.52 60.23 58.23 56.94 57.93 58.05 55.75 54.57
59.32 59.57 59.41 59.64 59.64 59.98 59.69 59.34 59.31 59.62 59.61 59.84 59.92 59.92 59.93 59.08 58.57 59.75 59.71 58.64 54.78 54.35
59.79 60.03 59.87 59.52 59.51 59.52 59.57 59.46 59.28 59.64 59.86 60.56 60.74 60.41 60.33 59.32 58.35 56.73 55.44 54.60 53.50 53.90
59.79 59.67 59.47 59.34 59.46 59.71 59.75 60.16 60.41 60.40 60.43 60.17 58.57 48.34 45.51 49.50 55.15 52.70 51.14 50.35 42.68 40.71
59.70 59.08 59.19 59.34 59.18 58.56 58.67 59.32 58.44 57.33 55.34 47.43 41.65 38.81 42.61 40.62 45.88 41.86 39.81 38.66 37.98 36.29
58.91 58.57 58.79 58.56 57.82 56.56 52.44 49.22 45.98 42.88 40.77 38.25 36.73 36.73 37.39 36.57 36.42 34.59 33.99 33.98 33.99 32.55
57.17 54.80 51.71 48.73 47.90 45.69 42.45 38.57 37.19 37.02 36.21 34.74 33.92 34.32 34.60 34.63 32.34 30.48 29.97 30.95 31.17 30.48
47.55 46.11 43.42 41.45 39.11 38.13 36.33 34.84 34.02 32.97 33.68 33.92 33.62 33.96 33.86 33.11 31.42 29.32 28.74 28.64 28.72 29.10
41.30 39.70 38.85 37.24 36.17 34.79 32.87 31.43 30.54 30.03 30.51 31.15 32.28 32.53 32.77 32.47 31.04 30.00 28.65 27.37 26.84 27.68

GFSNIL_sfc_wetblb_099.txt.gz
Wetbulb
59.41 58.01 56.43 58.73 59.58 58.31 58.65 60.61 59.27 58.37 58.24 58.90 60.46 59.92 61.73 62.68 61.21 61.50 61.88 62.03 62.06 61.15
60.04 59.37 58.35 58.28 59.05 60.22 60.90 60.97 61.14 60.92 60.04 60.32 60.10 60.81 59.43 60.53 60.67 61.44 61.99 62.53 62.46 61.39
59.92 60.42 60.29 60.88 60.51 60.95 61.55 60.98 61.04 61.21 60.91 60.83 60.67 60.99 61.37 61.34 61.87 61.28 61.53 61.64 61.56 61.33
60.05 60.31 60.44 60.90 61.38 61.16 61.61 61.50 61.02 61.16 61.16 61.23 61.21 61.68 61.83 61.59 61.40 60.84 61.02 61.77 61.21 60.99
60.45 60.30 59.81 60.34 61.10 62.00 61.64 61.94 61.42 61.19 60.37 60.55 60.82 61.52 61.34 61.11 61.11 60.87 60.63 61.05 61.13 60.60
60.72 60.52 60.25 60.52 61.45 61.53 61.35 61.01 61.23 61.06 61.05 60.80 61.21 61.23 61.61 61.69 61.27 61.26 61.27 61.37 60.78 59.15
60.71 60.78 61.18 61.56 61.39 62.08 61.72 60.69 60.33 61.33 61.25 61.75 60.68 60.58 60.97 60.73 61.19 61.10 60.76 60.36 58.35 57.78
61.04 61.60 61.23 61.04 61.19 61.05 60.83 60.68 60.82 60.49 60.34 60.43 60.55 59.95 60.43 59.68 58.48 58.12 57.74 57.59 51.81 41.05
60.81 60.78 60.66 60.86 60.80 60.43 60.41 60.40 60.21 59.64 59.82 59.62 51.22 38.28 41.03 47.46 52.89 46.69 44.61 42.34 38.47 37.25
60.90 60.34 60.46 60.46 60.08 59.76 59.44 58.67 50.07 46.03 43.20 39.97 39.36 37.93 38.35 38.47 39.01 36.60 35.95 35.14 34.64 33.93
60.90 60.55 60.34 59.13 53.40 47.57 44.45 41.47 39.65 37.37 36.48 35.37 35.47 35.45 35.27 34.54 34.00 32.66 32.11 31.93 32.12 32.09
60.68 55.79 50.34 45.57 42.12 39.66 37.23 35.70 35.24 35.47 34.73 33.93 33.58 34.02 33.99 32.96 31.49 30.27 30.00 30.72 31.46 30.87
46.44 43.29 39.84 37.94 36.11 35.33 34.24 33.57 33.02 32.51 33.14 33.29 32.72 33.97 33.81 33.04 31.64 29.96 29.26 29.49 29.55 29.34
39.01 37.64 36.45 35.13 34.19 32.92 31.96 31.01 30.24 29.72 30.49 30.95 31.43 31.37 32.47 32.78 32.09 31.38 30.52 29.89 28.97 28.54

GFSNIL_sfc_wetblb_102.txt.gz
Wetbulb
57.68 58.21 57.79 57.56 57.69 57.51 57.09 57.28 57.98 57.97 58.47 58.70 58.73 58.83 58.98 58.94 59.17 58.96 58.38 57.53 57.02 56.90
57.74 57.83 57.85 58.24 58.24 57.70 58.05 58.85 58.40 58.24 58.28 58.28 58.40 58.41 58.20 58.21 57.97 57.91 57.65 56.81 57.45 57.15
58.22 57.80 57.25 58.53 58.27 57.91 58.26 58.62 58.56 57.73 57.63 57.13 57.16 57.92 57.92 57.40 57.19 57.31 56.97 57.53 57.25 57.83
58.07 58.42 57.48 57.14 57.98 58.84 58.96 59.04 59.18 58.71 58.20 57.73 57.50 57.97 57.24 56.67 56.69 56.63 56.91 57.54 57.49 57.30
58.46 58.75 58.14 57.88 56.60 58.14 59.01 58.97 58.49 59.04 58.51 58.16 57.90 57.79 57.29 57.13 57.76 57.59 56.89 57.02 57.25 56.95
58.39 58.75 58.19 58.21 58.89 59.50 58.86 58.86 58.55 58.52 57.90 57.96 58.12 58.04 57.94 57.88 57.56 57.27 57.46 57.22 56.70 56.48
58.72 58.77 58.72 58.42 58.70 58.95 59.32 58.68 58.62 58.40 58.44 58.23 58.01 58.13 58.17 58.10 57.78 57.56 57.67 56.18 46.56 41.80
59.57 59.74 59.80 59.26 59.24 59.15 59.37 58.72 58.72 58.66 58.74 58.77 58.51 53.41 50.30 55.99 56.27 51.27 44.72 41.06 39.24 37.80
60.05 59.96 59.55 59.65 59.46 59.21 59.15 59.27 58.93 57.31 50.88 44.86 42.23 38.29 40.81 45.54 42.75 41.46 40.01 36.84 36.02 35.83
59.71 59.27 59.16 59.61 59.12 58.45 55.09 47.51 42.90 40.71 39.50 37.15 36.52 36.55 36.94 37.90 36.45 35.22 34.64 34.19 34.02 33.73
59.56 59.08 59.34 55.87 45.46 42.31 40.63 38.29 36.86 35.80 35.45 34.53 34.25 34.43 34.53 34.02 33.08 32.24 32.05 31.98 31.62 30.97
59.47 49.00 44.44 40.88 38.74 37.67 36.07 35.08 34.34 34.08 33.44 32.95 33.04 33.83 33.55 32.47 30.91 29.61 29.41 30.19 30.50 29.91
43.58 40.77 37.87 36.77 35.29 34.69 33.93 32.69 32.29 31.55 32.10 32.69 32.26 33.95 33.64 32.82 31.03 29.56 29.12 29.38 29.03 29.45
37.17 35.80 36.34 34.96 33.39 32.87 31.42 30.56 29.81 29.41 29.67 29.84 30.48 31.49 33.07 33.10 31.72 30.82 29.76 29.01 27.69 28.21

GFSNIL_sfc_wetblb_105.txt.gz
Wetbulb
57.13 57.32 57.81 57.04 57.14 57.29 57.10 57.36 57.46 57.10 57.71 58.21 58.39 57.80 57.58 57.24 57.35 57.25 57.05 56.03 56.29 55.92
56.69 57.10 57.41 57.75 57.01 57.03 57.21 57.60 56.84 56.05 56.27 57.80 58.14 57.92 57.18 57.41 56.62 57.30 57.08 56.96 56.81 56.68
56.66 57.93 57.96 57.71 57.33 56.88 56.86 57.04 56.71 56.02 56.15 57.22 57.76 57.78 57.42 57.10 57.27 56.67 56.89 57.18 56.65 56.52
56.09 56.69 57.23 57.45 57.16 57.25 57.55 57.12 56.95 56.63 56.52 57.14 57.07 57.35 56.78 56.81 56.74 56.07 55.94 55.61 55.91 55.94
56.62 55.70 55.52 57.00 57.03 57.38 57.09 57.83 57.65 57.78 56.88 56.83 56.68 56.52 55.80 55.46 56.11 55.41 54.50 54.64 55.23 55.39
56.76 55.92 54.87 55.32 56.27 56.45 57.25 57.27 57.95 57.73 56.91 56.78 56.79 56.50 56.04 56.02 55.65 55.38 55.57 55.89 55.16 52.00
56.25 56.44 56.06 56.04 55.40 55.02 57.12 57.35 56.61 57.74 57.78 57.53 57.19 56.95 56.76 56.83 56.49 56.20 50.30 45.58 42.49 40.60
56.54 56.05 56.13 55.69 55.97 57.04 57.26 57.15 57.21 56.56 57.37 56.96 54.74 49.72 52.21 54.86 52.58 45.41 40.79 39.11 37.95 37.75
57.17 57.17 56.47 56.00 55.82 55.74 56.16 56.69 53.55 45.81 45.30 42.19 40.46 38.30 41.55 43.86 41.56 39.53 37.40 35.95 35.85 36.16
57.56 57.30 56.99 57.09 56.92 56.23 48.08 43.29 40.81 38.84 37.60 35.97 36.19 36.71 37.16 36.60 36.36 35.34 34.53 33.89 33.26 32.89
57.87 57.50 57.02 52.08 44.40 41.40 39.74 37.82 36.28 35.22 34.83 34.05 34.14 34.78 34.81 34.45 33.25 32.04 31.49 31.23 30.83 30.36
57.57 46.64 43.55 39.97 38.18 37.27 35.59 34.41 33.85 33.95 33.32 32.64 32.80 33.56 33.05 32.21 30.68 29.56 29.43 30.22 30.18 30.18
42.95 40.50 38.00 36.20 34.76 34.11 33.28 32.22 32.18 31.71 32.66 33.37 32.80 33.71 33.15 32.06 30.71 28.81 28.10 28.70 29.70 30.60
37.80 36.00 35.12 34.29 33.85 32.26 30.87 30.12 29.33 28.98 29.66 30.30 31.40 32.13 33.26 32.95 30.74 29.18 27.56 27.30 27.74 28.72

GFSNIL_sfc_wetblb_108.txt.gz
Wetbulb
56.50 57.55 57.35 58.71 58.81 58.64 58.61 58.75 58.23 58.24 58.25 58.08 58.24 58.20 58.03 57.20 56.72 56.64 56.28 55.72 54.93 54.79
56.99 56.12 57.11 57.23 58.32 57.87 58.46 58.99 58.17 58.09 57.90 58.07 57.81 57.67 57.30 56.78 56.22 56.28 56.16 56.32 56.30 55.92
56.46 56.50 56.54 56.45 56.64 57.47 57.85 57.67 57.16 57.53 57.55 57.62 57.68 57.54 57.06 56.40 56.56 56.02 56.29 56.44 56.02 55.84
56.10 56.60 56.95 56.79 56.62 56.14 57.22 57.17 56.44 56.34 56.44 56.87 57.42 57.49 56.86 56.36 56.30 55.85 55.47 55.24 54.98 55.38
55.70 56.63 57.04 57.02 56.68 56.41 55.93 56.71 56.39 56.00 55.66 55.87 56.58 56.67 56.46 56.00 56.18 55.67 55.09 55.37 55.05 54.99
55.40 55.16 55.70 56.30 56.24 56.39 56.17 56.13 56.27 55.91 55.30 55.52 55.96 56.14 56.17 55.93 55.42 54.91 55.35 54.92 54.12 52.60
54.99 54.42 55.05 56.02 55.94 56.21 56.41 56.39 56.27 56.07 56.17 55.88 55.90 55.51 55.34 55.07 54.46 54.38 48.69 43.81 41.00 39.11
55.69 55.09 54.06 54.63 55.07 55.52 56.27 56.39 56.84 56.37 56.22 55.99 55.87 53.90 55.09 54.93 54.24 43.92 39.38 38.49 37.35 36.98
56.30 56.09 54.69 54.38 54.28 53.77 54.53 55.44 52.06 49.59 45.23 41.91 41.59 38.96 41.49 44.08 41.43 39.28 37.08 35.25 34.59 34.59
55.70 55.41 55.07 55.07 55.05 53.06 45.64 42.80 40.47 39.15 38.14 36.53 36.99 37.66 38.06 37.30 36.73 34.94 34.06 33.38 33.09 33.08
56.10 55.54 55.48 51.69 44.47 41.54 39.85 37.78 36.27 35.03 34.63 33.97 34.29 34.91 34.79 33.85 32.65 31.39 31.09 31.40 31.58 31.41
56.23 49.53 44.49 40.87 38.72 37.42 35.75 34.74 34.00 33.73 32.91 32.19 32.16 33.23 33.08 31.80 30.56 29.73 29.87 30.43 29.22 28.68
45.52 42.66 39.08 37.00 35.74 35.28 34.30 33.14 32.97 32.36 32.69 32.78 31.89 32.83 32.28 30.87 29.43 28.29 28.46 28.79 28.80 29.73
40.69 37.78 36.11 34.69 34.03 32.71 31.65 31.07 30.73 30.32 31.10 31.57 32.35 32.60 32.27 31.09 29.24 28.32 27.73 27.52 27.37 28.38

GFSNIL_sfc_wetblb_111.txt.gz
Wetbulb
57.70 57.84 58.03 57.89 57.95 58.82 58.71 59.89 59.39 59.20 59.99 60.42 59.06 57.87 57.62 57.00 56.67 56.62 55.96 55.39 54.84 54.72
57.70 57.61 57.86 58.36 59.29 59.51 60.04 59.58 59.29 58.94 59.09 59.41 58.95 58.46 57.89 57.11 56.80 56.80 56.74 56.46 55.59 55.21
57.13 56.93 56.91 57.85 57.67 58.18 58.88 58.59 58.59 58.37 58.52 58.65 58.61 58.39 58.03 57.30 56.88 56.15 56.03 55.97 55.43 55.40
56.81 56.48 56.20 56.04 57.43 57.61 57.82 58.19 57.82 57.77 57.65 57.47 57.40 57.67 57.28 56.84 56.52 55.62 55.19 55.59 55.46 55.05
56.38 56.81 56.32 55.78 55.72 56.97 56.78 57.13 57.26 57.38 57.49 56.97 56.77 56.44 56.18 55.74 56.34 55.54 54.75 54.82 54.52 54.28
56.55 56.55 56.30 55.92 55.94 55.82 56.55 56.55 56.43 56.31 56.22 56.40 56.40 56.48 56.28 56.06 55.58 55.52 55.26 54.45 53.97 49.53
55.82 56.28 56.12 55.80 55.66 54.66 55.44 55.84 55.68 55.89 56.05 56.19 56.59 56.69 56.17 55.99 54.67 52.02 45.80 42.45 40.45 39.23
55.81 55.52 55.52 55.11 55.30 55.90 55.24 55.14 55.44 55.20 55.16 55.06 54.99 54.27 54.11 54.05 51.39 42.88 38.89 37.77 36.84 36.60
55.22 53.97 54.00 54.21 54.49 55.36 55.52 54.60 54.33 51.64 48.73 45.89 44.11 39.65 44.01 45.99 42.80 39.51 36.67 34.82 34.69 34.59
54.62 53.47 52.83 53.64 53.36 53.20 48.02 45.50 42.49 41.01 40.05 38.24 38.82 38.85 39.18 38.25 37.52 35.66 34.57 33.77 33.13 32.82
54.43 53.75 53.45 51.90 46.38 42.43 41.47 39.52 37.44 36.23 35.92 35.25 35.55 36.27 35.58 34.32 33.22 32.29 32.20 32.17 32.01 31.76
54.73 50.90 46.26 42.18 39.47 38.49 37.02 35.59 34.48 34.25 33.62 32.84 32.93 34.04 33.77 32.80 30.86 29.33 28.56 28.78 29.47 29.85
48.59 44.96 40.87 38.64 37.05 36.13 35.07 33.34 32.94 32.14 32.49 32.58 31.70 33.21 33.24 31.81 29.38 27.46 27.40 28.52 29.02 29.69
44.46 42.08 38.97 36.57 35.73 34.57 33.14 32.41 31.78 31.27 31.72 31.40 31.57 31.66 32.27 31.37 28.77 27.68 27.36 26.48 25.68 26.57

GFSNIL_sfc_wetblb_114.txt.gz
Wetbulb
54.70 55.35 55.01 55.76 57.69 58.81 59.99 60.54 61.14 61.37 60.06 59.00 57.66 58.29 57.28 56.43 56.08 54.93 54.31 53.96 54.23 53.89
57.67 57.56 57.09 56.43 55.98 56.85 58.60 59.61 60.40 61.17 60.93 59.84 59.16 58.23 57.44 56.32 55.72 55.16 55.08 55.10 55.31 54.96
57.48 57.48 57.82 56.87 57.97 57.70 59.16 59.59 59.66 59.79 60.45 60.28 59.62 58.50 57.68 56.59 56.43 55.81 55.70 55.80 55.64 55.43
57.03 56.89 57.15 57.43 57.65 58.16 58.62 58.96 59.21 59.15 59.35 59.09 58.44 58.19 57.54 57.05 56.90 56.07 56.21 56.18 55.48 55.36
56.95 56.81 56.29 56.29 57.07 57.52 57.32 58.04 58.25 58.37 58.69 58.53 58.41 58.01 57.69 56.71 56.73 56.27 55.53 55.37 55.21 54.83
56.49 56.45 56.08 56.08 56.29 56.86 56.51 56.84 57.18 57.32 57.14 57.46 57.60 57.63 57.47 57.07 56.55 55.98 55.64 55.25 54.91 54.37
56.35 56.41 56.23 56.12 55.81 55.99 56.37 56.13 56.29 56.53 56.37 56.29 56.49 56.65 56.67 56.31 55.63 51.70 46.91 44.12 43.25 43.09
56.06 56.47 56.21 55.61 55.37 55.38 56.06 55.96 55.88 55.94 56.11 56.27 56.27 55.89 55.89 54.30 47.34 41.39 38.54 37.61 37.17 37.45
55.46 55.47 55.57 55.11 55.23 55.21 55.08 55.30 54.94 52.95 51.34 49.02 47.18 42.92 44.55 45.92 42.36 39.52 36.75 34.64 34.42 34.45
54.78 54.30 54.73 54.83 54.99 54.04 49.22 47.81 44.90 43.52 44.01 41.50 41.68 40.38 40.34 39.21 39.02 36.81 34.87 33.52 32.88 32.36
54.67 53.73 53.76 53.24 46.56 43.51 42.05 40.62 38.98 37.39 37.17 36.39 36.57 37.72 36.84 35.95 35.06 33.85 33.29 32.86 32.26 31.08
54.39 52.51 48.41 44.29 41.20 39.52 38.00 36.22 34.95 34.88 34.39 33.59 33.52 34.62 34.31 32.83 31.16 29.94 29.96 30.82 30.89 30.49
51.57 48.48 44.22 40.77 38.57 36.91 35.30 33.61 33.28 32.20 32.78 33.20 32.53 33.56 33.01 31.97 30.52 28.68 27.76 28.01 28.34 29.04
46.84 43.44 40.46 37.78 36.56 34.84 33.26 32.30 31.10 30.52 31.09 31.41 31.51 31.66 32.49 31.93 29.37 27.31 25.83 24.68 24.26 25.27

GFSNIL_sfc_wetblb_117.txt.gz
Wetbulb
61.51 61.03 61.31 61.22 61.38 60.81 60.28 60.52 61.28 60.23 59.68 57.86 56.78 55.41 56.51 57.60 57.47 58.41 58.92 58.58 58.45 57.94
59.97 58.95 58.69 59.06 60.01 61.36 61.23 61.65 61.27 60.42 60.13 59.80 57.27 57.83 57.47 58.19 57.87 58.69 58.48 57.61 57.81 57.11
60.32 59.97 59.36 59.53 59.02 59.67 59.98 60.26 60.66 61.00 60.53 59.34 58.56 57.80 56.87 56.85 58.16 57.06 57.21 56.81 56.44 56.65
58.92 59.04 58.97 58.62 59.19 60.23 60.53 60.94 60.52 60.65 60.45 59.61 58.59 57.80 57.03 56.71 56.55 55.35 55.31 55.47 55.03 55.33
58.88 58.27 57.83 58.04 58.94 60.00 59.22 60.07 59.98 59.68 59.53 59.43 59.55 58.26 57.13 55.96 55.66 55.11 54.72 55.05 55.27 55.11
58.51 57.40 57.42 58.11 58.08 58.90 58.70 58.18 58.17 58.46 58.21 58.11 59.31 58.28 57.63 56.75 55.88 55.73 55.25 55.43 55.23 55.37
57.84 57.24 57.29 57.44 57.37 58.34 57.92 56.84 56.94 57.10 57.33 57.65 58.09 57.96 57.72 57.08 56.46 56.28 55.91 55.27 55.05 54.38
58.02 57.62 57.31 56.90 57.03 57.00 57.06 57.09 56.82 56.48 56.14 56.48 56.50 56.91 56.60 54.18 47.64 44.02 40.79 39.74 39.13 39.33
57.33 56.86 56.80 56.24 56.22 56.14 56.08 56.03 55.23 54.46 53.09 51.32 49.20 42.24 42.44 45.30 42.64 39.76 37.29 34.74 34.29 34.57
56.49 56.03 55.95 56.06 55.75 55.10 51.75 49.33 46.71 45.37 44.96 42.19 42.39 40.43 39.79 38.77 38.63 36.12 34.64 33.38 32.60 32.07
55.88 55.45 55.67 55.02 49.52 46.24 45.17 43.69 41.48 39.02 38.25 37.49 37.36 37.48 36.83 35.89 34.89 33.51 32.97 32.50 31.84 30.84
55.69 54.32 52.23 47.16 43.53 41.15 39.41 37.49 36.23 36.14 35.46 34.34 34.08 35.16 34.99 33.81 32.29 30.87 30.35 30.53 30.88 30.00
55.03 51.71 47.39 42.67 39.99 38.30 36.28 34.13 33.60 32.93 33.33 33.48 32.91 34.10 34.05 33.15 31.59 29.10 27.87 28.13 28.91 29.01
50.68 46.85 42.93 39.38 37.34 35.19 33.69 32.66 31.79 31.08 31.37 31.96 32.60 32.91 33.10 32.10 29.47 27.32 25.76 25.48 25.50 26.54

GFSNIL_sfc_wetblb_120.txt.gz
Wetbulb
63.44 62.44 62.32 63.20 62.91 62.30 61.31 60.69 60.00 58.58 57.47 55.92 55.88 56.59 57.03 57.86 60.81 62.49 62.99 62.71 62.58 61.29
62.27 63.86 63.15 63.70 63.78 64.04 62.41 61.49 61.57 60.69 58.67 57.46 55.86 55.50 56.72 58.01 59.21 60.26 62.48 62.77 63.25 61.73
62.72 63.84 63.88 63.22 63.76 63.77 62.32 62.15 61.11 60.09 59.73 58.66 58.06 56.63 56.47 57.12 58.26 59.21 59.65 62.02 62.03 62.02
61.82 62.49 63.18 60.95 61.23 61.77 61.15 60.69 60.35 60.63 59.93 59.27 58.59 58.62 57.43 56.43 57.27 58.67 59.36 60.74 60.82 60.01
61.90 62.14 62.25 61.19 61.54 61.60 60.59 62.57 62.28 60.93 60.45 59.79 57.83 57.98 57.62 56.58 57.99 59.67 59.00 58.74 58.17 57.79
61.09 60.80 60.56 60.46 61.13 60.24 59.80 60.11 60.02 60.30 59.91 59.70 59.51 58.28 57.93 57.40 56.34 56.47 56.48 56.74 56.61 56.96
59.86 59.75 59.98 61.22 59.92 59.51 59.34 59.42 58.76 59.30 59.26 58.92 58.58 59.05 58.31 57.71 56.51 55.77 55.40 55.20 54.93 54.91
59.19 60.47 60.75 60.96 59.16 59.33 59.43 58.63 58.40 58.72 58.33 56.82 57.28 57.34 57.62 56.96 55.94 54.36 48.53 43.85 42.19 41.17
59.07 59.31 59.93 60.13 58.80 58.38 57.81 57.48 57.11 57.13 54.04 50.87 46.53 40.85 42.66 45.80 43.84 40.66 38.14 35.55 34.78 34.66
58.87 58.71 59.54 58.96 58.25 56.91 55.06 52.33 47.90 46.38 45.16 42.22 40.89 38.89 39.22 38.73 38.62 36.78 35.67 34.18 32.81 31.55
57.89 57.66 58.81 57.77 56.21 51.18 48.90 46.17 42.53 39.89 39.82 38.33 37.37 36.56 35.93 35.23 34.35 33.29 32.89 32.25 31.48 29.88
56.99 56.55 56.96 52.75 49.28 45.38 41.90 40.18 38.79 37.86 37.07 36.10 35.60 35.28 34.71 33.99 32.34 31.10 30.22 30.21 30.06 29.40
55.78 55.44 51.13 46.22 42.46 40.98 38.34 35.95 35.85 34.66 35.12 34.84 34.61 34.79 34.49 33.69 31.82 29.70 28.20 27.86 28.09 28.57
54.14 50.17 45.46 41.55 39.11 37.20 34.90 33.82 33.02 32.65 33.49 33.83 33.80 33.82 33.73 32.79 30.48 28.86 27.42 26.51 26.27 26.84